Time,TemperatureF,DewpointF,PressureIn,WindDirection,WindDirectionDegrees,WindSpeedMPH,WindSpeedGustMPH,Humidity,HourlyPrecipIn,Conditions,Clouds,dailyrainin,SoftwareType,DateUTC
2013-01-13 00:00:00,20.5,-5.4,29.62,WNW,293,0.2,2.5,31,0.00,,,0.00,WUHU216HW,2013-01-13 07:00:00,
2013-01-13 00:02:00,20.5,-5.4,29.62,NNW,338,0.4,2.5,31,0.00,,,0.00,WUHU216HW,2013-01-13 07:02:00,
2013-01-13 00:03:00,20.5,-5.4,29.62,NNW,338,0.4,2.0,31,0.00,,,0.00,WUHU216HW,2013-01-13 07:03:00,
2013-01-13 00:05:00,20.5,-5.4,29.62,NNW,338,0.9,2.0,31,0.00,,,0.00,WUHU216HW,2013-01-13 07:05:00,
2013-01-13 00:07:00,20.5,-4.9,29.62,NNW,338,2.0,2.0,32,0.00,,,0.00,WUHU216HW,2013-01-13 07:07:00,
2013-01-13 00:08:00,20.5,-4.9,29.62,NNW,338,1.3,2.0,32,0.00,,,0.00,WUHU216HW,2013-01-13 07:08:00,
2013-01-13 00:11:00,20.3,-4.9,29.62,NNW,338,2.2,3.1,32,0.00,,,0.00,WUHU216HW,2013-01-13 07:11:00,
2013-01-13 00:13:00,20.2,-5.1,29.62,NNW,338,2.2,3.4,32,0.00,,,0.00,WUHU216HW,2013-01-13 07:13:00,
2013-01-13 00:16:00,20.0,-5.3,29.62,West,270,1.6,3.4,32,0.00,,,0.00,WUHU216HW,2013-01-13 07:16:00,
2013-01-13 00:18:00,19.8,-4.9,29.62,WNW,293,2.2,3.4,33,0.00,,,0.00,WUHU216HW,2013-01-13 07:18:00,
2013-01-13 00:21:00,19.8,-4.2,29.62,WNW,293,1.8,3.4,34,0.00,,,0.00,WUHU216HW,2013-01-13 07:21:00,
2013-01-13 00:23:00,19.6,-4.4,29.62,SW,225,0.4,3.8,34,0.00,,,0.00,WUHU216HW,2013-01-13 07:23:00,
2013-01-13 00:26:00,19.4,-4.6,29.62,West,270,2.9,3.8,34,0.00,,,0.00,WUHU216HW,2013-01-13 07:26:00,
2013-01-13 00:28:00,19.3,-4.8,29.62,WNW,293,2.7,3.8,34,0.00,,,0.00,WUHU216HW,2013-01-13 07:28:00,
2013-01-13 00:31:00,19.3,-4.8,29.62,WNW,293,2.7,3.8,34,0.00,,,0.00,WUHU216HW,2013-01-13 07:31:00,
2013-01-13 00:33:00,19.4,-4.6,29.62,West,270,2.5,3.4,34,0.00,,,0.00,WUHU216HW,2013-01-13 07:33:00,
2013-01-13 00:34:00,19.4,-4.6,29.62,WNW,293,3.4,3.4,34,0.00,,,0.00,WUHU216HW,2013-01-13 07:34:00,
2013-01-13 00:36:00,19.4,-4.6,29.62,WNW,293,3.1,3.4,34,0.00,,,0.00,WUHU216HW,2013-01-13 07:36:00,
2013-01-13 00:38:00,19.4,-4.6,29.62,WNW,293,3.4,3.4,34,0.00,,,0.00,WUHU216HW,2013-01-13 07:38:00,
2013-01-13 00:39:00,19.4,-4.6,29.62,West,270,2.9,3.4,34,0.00,,,0.00,WUHU216HW,2013-01-13 07:39:00,
2013-01-13 00:41:00,19.4,-4.6,29.62,WNW,293,2.9,3.8,34,0.00,,,0.00,WUHU216HW,2013-01-13 07:41:00,
2013-01-13 00:43:00,19.4,-4.6,29.63,WNW,293,2.5,3.8,34,0.00,,,0.00,WUHU216HW,2013-01-13 07:43:00,
2013-01-13 00:44:00,19.3,-4.8,29.63,WNW,293,3.4,3.8,34,0.00,,,0.00,WUHU216HW,2013-01-13 07:44:00,
2013-01-13 00:46:00,19.1,-4.8,29.63,WNW,293,2.5,3.8,34,0.00,,,0.00,WUHU216HW,2013-01-13 07:46:00,
2013-01-13 00:48:00,19.1,-4.8,29.63,West,270,2.7,3.8,34,0.00,,,0.00,WUHU216HW,2013-01-13 07:48:00,
2013-01-13 00:49:00,19.1,-4.3,29.63,West,270,1.8,3.8,35,0.00,,,0.00,WUHU216HW,2013-01-13 07:49:00,
2013-01-13 00:51:00,19.1,-4.3,29.63,WNW,293,2.2,3.8,35,0.00,,,0.00,WUHU216HW,2013-01-13 07:51:00,
2013-01-13 00:53:00,19.1,-4.3,29.63,West,270,2.0,3.8,35,0.00,,,0.00,WUHU216HW,2013-01-13 07:53:00,
2013-01-13 00:54:00,18.9,-4.4,29.63,West,270,2.5,3.8,35,0.00,,,0.00,WUHU216HW,2013-01-13 07:54:00,
2013-01-13 00:56:00,19.1,-4.3,29.63,West,270,2.5,3.8,35,0.00,,,0.00,WUHU216HW,2013-01-13 07:56:00,
2013-01-13 00:57:00,19.1,-4.3,29.63,West,270,2.5,3.8,35,0.00,,,0.00,WUHU216HW,2013-01-13 07:57:00,
2013-01-13 00:58:00,19.1,-4.3,29.63,West,270,2.5,3.8,35,0.00,,,0.00,WUHU216HW,2013-01-13 07:58:00,
2013-01-13 00:59:00,19.1,-4.3,29.63,West,270,1.8,3.8,35,0.00,,,0.00,WUHU216HW,2013-01-13 07:59:00,
2013-01-13 01:01:00,19.1,-4.3,29.63,WNW,293,1.8,3.4,35,0.00,,,0.00,WUHU216HW,2013-01-13 08:01:00,
2013-01-13 01:02:00,19.1,-4.3,29.63,WSW,248,1.3,3.4,35,0.00,,,0.00,WUHU216HW,2013-01-13 08:02:00,
2013-01-13 01:03:00,19.1,-4.3,29.63,West,270,1.6,2.7,35,0.00,,,0.00,WUHU216HW,2013-01-13 08:03:00,
2013-01-13 01:04:00,19.1,-4.3,29.63,WNW,293,2.0,2.7,35,0.00,,,0.00,WUHU216HW,2013-01-13 08:04:00,
2013-01-13 01:06:00,19.1,-4.3,29.63,NNW,338,0.9,2.7,35,0.00,,,0.00,WUHU216HW,2013-01-13 08:06:00,
2013-01-13 01:07:00,19.3,-4.1,29.63,NNW,338,1.1,2.7,35,0.00,,,0.00,WUHU216HW,2013-01-13 08:07:00,
2013-01-13 01:08:00,19.3,-4.1,29.63,NNW,338,0.2,2.7,35,0.00,,,0.00,WUHU216HW,2013-01-13 08:08:00,
2013-01-13 01:10:00,19.3,-4.1,29.63,West,270,2.5,2.7,35,0.00,,,0.00,WUHU216HW,2013-01-13 08:10:00,
2013-01-13 01:12:00,19.3,-4.1,29.63,WNW,293,0.2,2.7,35,0.00,,,0.00,WUHU216HW,2013-01-13 08:12:00,
2013-01-13 01:14:00,19.3,-4.1,29.63,West,270,0.7,2.7,35,0.00,,,0.00,WUHU216HW,2013-01-13 08:14:00,
2013-01-13 01:15:00,19.3,-4.1,29.63,WNW,293,0.4,2.7,35,0.00,,,0.00,WUHU216HW,2013-01-13 08:15:00,
2013-01-13 01:17:00,19.3,-4.1,29.63,West,270,0.9,2.5,35,0.00,,,0.00,WUHU216HW,2013-01-13 08:17:00,
2013-01-13 01:19:00,19.3,-4.1,29.64,West,270,3.1,3.1,35,0.00,,,0.00,WUHU216HW,2013-01-13 08:19:00,
2013-01-13 01:20:00,19.3,-4.1,29.64,West,270,3.4,3.4,35,0.00,,,0.00,WUHU216HW,2013-01-13 08:20:00,
2013-01-13 01:22:00,19.1,-3.7,29.64,WNW,293,2.5,3.4,36,0.00,,,0.00,WUHU216HW,2013-01-13 08:22:00,
2013-01-13 01:24:00,18.9,-3.9,29.64,North,0,0.9,3.4,36,0.00,,,0.00,WUHU216HW,2013-01-13 08:24:00,
2013-01-13 01:25:00,18.7,-3.9,29.63,NNW,338,0.9,3.4,36,0.00,,,0.00,WUHU216HW,2013-01-13 08:25:00,
2013-01-13 01:28:00,18.4,-3.7,29.63,West,270,0.7,3.4,37,0.00,,,0.00,WUHU216HW,2013-01-13 08:28:00,
2013-01-13 01:29:00,18.2,-3.9,29.63,NNW,338,2.7,3.4,37,0.00,,,0.00,WUHU216HW,2013-01-13 08:29:00,
2013-01-13 01:30:00,18.0,-4.0,29.63,WNW,293,2.2,3.4,37,0.00,,,0.00,WUHU216HW,2013-01-13 08:30:00,
2013-01-13 01:33:00,17.6,-4.3,29.64,West,270,1.8,2.9,37,0.00,,,0.00,WUHU216HW,2013-01-13 08:33:00,
2013-01-13 01:34:00,17.6,-4.3,29.64,West,270,1.8,2.9,37,0.00,,,0.00,WUHU216HW,2013-01-13 08:34:00,
2013-01-13 01:35:00,17.6,-3.8,29.64,NNW,338,0.0,2.9,38,0.00,,,0.00,WUHU216HW,2013-01-13 08:35:00,
2013-01-13 01:38:00,17.5,-4.0,29.64,NW,315,2.5,2.9,38,0.00,,,0.00,WUHU216HW,2013-01-13 08:38:00,
2013-01-13 01:39:00,17.3,-4.0,29.64,NNW,338,3.1,3.1,38,0.00,,,0.00,WUHU216HW,2013-01-13 08:39:00,
2013-01-13 01:40:00,17.3,-4.0,29.64,NW,315,2.5,3.1,38,0.00,,,0.00,WUHU216HW,2013-01-13 08:40:00,
2013-01-13 01:43:00,16.9,-3.9,29.64,NNW,338,2.2,3.1,39,0.00,,,0.00,WUHU216HW,2013-01-13 08:43:00,
2013-01-13 01:44:00,16.9,-3.9,29.64,NNW,338,0.4,3.1,39,0.00,,,0.00,WUHU216HW,2013-01-13 08:44:00,
2013-01-13 01:45:00,16.9,-3.9,29.64,North,0,2.5,3.1,39,0.00,,,0.00,WUHU216HW,2013-01-13 08:45:00,
2013-01-13 01:48:00,16.9,-3.9,29.64,NNW,338,0.4,3.1,39,0.00,,,0.00,WUHU216HW,2013-01-13 08:48:00,
2013-01-13 01:49:00,16.9,-3.9,29.64,WNW,293,0.0,3.1,39,0.00,,,0.00,WUHU216HW,2013-01-13 08:49:00,
2013-01-13 01:51:00,16.9,-3.9,29.64,NNW,338,1.6,2.7,39,0.00,,,0.00,WUHU216HW,2013-01-13 08:51:00,
2013-01-13 01:54:00,16.9,-3.9,29.64,NW,315,0.7,2.5,39,0.00,,,0.00,WUHU216HW,2013-01-13 08:54:00,
2013-01-13 01:56:00,16.9,-3.9,29.64,WNW,293,2.7,2.9,39,0.00,,,0.00,WUHU216HW,2013-01-13 08:56:00,
2013-01-13 01:59:00,16.9,-3.9,29.64,NW,315,0.4,2.9,39,0.00,,,0.00,WUHU216HW,2013-01-13 08:59:00,
2013-01-13 02:01:00,16.9,-3.2,29.64,WNW,293,3.8,3.8,40,0.00,,,0.00,WUHU216HW,2013-01-13 09:01:00,
2013-01-13 02:04:00,16.7,-3.4,29.64,North,0,4.0,4.0,40,0.00,,,0.00,WUHU216HW,2013-01-13 09:04:00,
2013-01-13 02:06:00,16.6,-3.6,29.64,West,270,2.2,4.0,40,0.00,,,0.00,WUHU216HW,2013-01-13 09:06:00,
2013-01-13 02:09:00,16.4,-3.8,29.64,WSW,248,3.1,4.5,40,0.00,,,0.00,WUHU216HW,2013-01-13 09:09:00,
2013-01-13 02:11:00,16.2,-4.0,29.64,WNW,293,2.5,4.5,40,0.00,,,0.00,WUHU216HW,2013-01-13 09:11:00,
2013-01-13 02:14:00,16.2,-4.0,29.64,West,270,2.7,4.5,40,0.00,,,0.00,WUHU216HW,2013-01-13 09:14:00,
2013-01-13 02:15:00,16.2,-4.5,29.64,West,270,2.9,4.5,39,0.00,,,0.00,WUHU216HW,2013-01-13 09:15:00,
2013-01-13 02:16:00,16.2,-4.5,29.64,WNW,293,2.9,4.5,39,0.00,,,0.00,WUHU216HW,2013-01-13 09:16:00,
2013-01-13 02:19:00,16.2,-4.5,29.64,WNW,293,3.4,4.0,39,0.00,,,0.00,WUHU216HW,2013-01-13 09:19:00,
2013-01-13 02:20:00,16.2,-4.5,29.64,West,270,3.4,4.0,39,0.00,,,0.00,WUHU216HW,2013-01-13 09:20:00,
2013-01-13 02:21:00,16.2,-4.5,29.64,WNW,293,3.4,4.3,39,0.00,,,0.00,WUHU216HW,2013-01-13 09:21:00,
2013-01-13 02:24:00,16.2,-4.5,29.64,West,270,3.4,4.3,39,0.00,,,0.00,WUHU216HW,2013-01-13 09:24:00,
2013-01-13 02:25:00,16.2,-4.5,29.64,WNW,293,1.8,4.3,39,0.00,,,0.00,WUHU216HW,2013-01-13 09:25:00,
2013-01-13 02:26:00,16.2,-4.5,29.64,West,270,2.7,4.3,39,0.00,,,0.00,WUHU216HW,2013-01-13 09:26:00,
2013-01-13 02:30:00,16.2,-4.5,29.64,North,0,0.4,4.3,39,0.00,,,0.00,WUHU216HW,2013-01-13 09:30:00,
2013-01-13 02:31:00,16.2,-4.5,29.64,NNW,338,0.0,3.6,39,0.00,,,0.00,WUHU216HW,2013-01-13 09:31:00,
2013-01-13 02:32:00,16.4,-4.4,29.64,North,0,0.0,3.6,39,0.00,,,0.00,WUHU216HW,2013-01-13 09:32:00,
2013-01-13 02:34:00,16.4,-4.4,29.64,NW,315,1.1,3.6,39,0.00,,,0.00,WUHU216HW,2013-01-13 09:34:00,
2013-01-13 02:35:00,16.4,-4.4,29.64,NNW,338,1.1,3.6,39,0.00,,,0.00,WUHU216HW,2013-01-13 09:35:00,
2013-01-13 02:36:00,16.4,-4.4,29.64,NW,315,0.2,3.6,39,0.00,,,0.00,WUHU216HW,2013-01-13 09:36:00,
2013-01-13 02:37:00,16.4,-4.4,29.64,NNW,338,0.0,1.6,39,0.00,,,0.00,WUHU216HW,2013-01-13 09:37:00,
2013-01-13 02:40:00,16.4,-4.4,29.64,North,0,0.0,1.1,39,0.00,,,0.00,WUHU216HW,2013-01-13 09:40:00,
2013-01-13 02:41:00,16.4,-4.4,29.64,NNW,338,0.0,1.1,39,0.00,,,0.00,WUHU216HW,2013-01-13 09:41:00,
2013-01-13 02:42:00,16.4,-4.4,29.64,NNW,338,0.0,1.1,39,0.00,,,0.00,WUHU216HW,2013-01-13 09:42:00,
2013-01-13 02:45:00,16.6,-4.2,29.64,NNW,338,0.0,1.1,39,0.00,,,0.00,WUHU216HW,2013-01-13 09:45:00,
2013-01-13 02:46:00,16.6,-4.2,29.64,NNW,338,0.0,0.2,39,0.00,,,0.00,WUHU216HW,2013-01-13 09:46:00,
2013-01-13 02:47:00,16.6,-4.2,29.64,NNW,338,0.0,0.0,39,0.00,,,0.00,WUHU216HW,2013-01-13 09:47:00,
2013-01-13 02:50:00,16.6,-4.2,29.64,NNW,338,0.0,0.0,39,0.00,,,0.00,WUHU216HW,2013-01-13 09:50:00,
2013-01-13 02:51:00,16.6,-4.2,29.64,NNW,338,0.0,0.4,39,0.00,,,0.00,WUHU216HW,2013-01-13 09:51:00,
2013-01-13 02:52:00,16.6,-4.2,29.64,NNW,338,0.4,0.4,39,0.00,,,0.00,WUHU216HW,2013-01-13 09:52:00,
2013-01-13 02:55:00,16.7,-4.0,29.64,NW,315,0.4,1.3,39,0.00,,,0.00,WUHU216HW,2013-01-13 09:55:00,
2013-01-13 02:56:00,16.7,-4.0,29.64,WNW,293,0.9,1.3,39,0.00,,,0.00,WUHU216HW,2013-01-13 09:56:00,
2013-01-13 02:57:00,16.7,-4.0,29.65,NW,315,0.7,1.3,39,0.00,,,0.00,WUHU216HW,2013-01-13 09:57:00,
2013-01-13 03:00:00,16.7,-4.0,29.64,WNW,293,0.0,1.3,39,0.00,,,0.00,WUHU216HW,2013-01-13 10:00:00,
2013-01-13 03:02:00,16.7,-4.0,29.64,WNW,293,0.0,1.3,39,0.00,,,0.00,WUHU216HW,2013-01-13 10:02:00,
2013-01-13 03:05:00,16.6,-4.2,29.65,WNW,293,1.3,1.3,39,0.00,,,0.00,WUHU216HW,2013-01-13 10:05:00,
2013-01-13 03:07:00,16.6,-4.2,29.65,NW,315,1.6,1.8,39,0.00,,,0.00,WUHU216HW,2013-01-13 10:07:00,
2013-01-13 03:08:00,16.6,-4.2,29.64,NNW,338,0.2,1.8,39,0.00,,,0.00,WUHU216HW,2013-01-13 10:08:00,
2013-01-13 03:10:00,16.4,-4.4,29.65,NNW,338,0.2,1.8,39,0.00,,,0.00,WUHU216HW,2013-01-13 10:10:00,
2013-01-13 03:11:00,16.4,-4.4,29.65,NNW,338,0.0,1.8,39,0.00,,,0.00,WUHU216HW,2013-01-13 10:11:00,
2013-01-13 03:12:00,16.4,-4.4,29.65,NNW,338,0.0,1.8,39,0.00,,,0.00,WUHU216HW,2013-01-13 10:12:00,
2013-01-13 03:13:00,16.4,-4.4,29.65,NNW,338,0.0,1.8,39,0.00,,,0.00,WUHU216HW,2013-01-13 10:13:00,
2013-01-13 03:16:00,16.2,-4.5,29.64,NNW,338,1.8,1.8,39,0.00,,,0.00,WUHU216HW,2013-01-13 10:16:00,
2013-01-13 03:17:00,16.2,-4.5,29.65,NNW,338,0.2,1.8,39,0.00,,,0.00,WUHU216HW,2013-01-13 10:17:00,
2013-01-13 03:18:00,16.2,-4.5,29.64,NW,315,1.6,1.8,39,0.00,,,0.00,WUHU216HW,2013-01-13 10:18:00,
2013-01-13 03:21:00,16.2,-4.5,29.64,NW,315,0.9,1.8,39,0.00,,,0.00,WUHU216HW,2013-01-13 10:21:00,
2013-01-13 03:22:00,16.2,-4.5,29.64,NNW,338,1.1,1.8,39,0.00,,,0.00,WUHU216HW,2013-01-13 10:22:00,
2013-01-13 03:23:00,16.0,-4.7,29.64,NW,315,1.1,1.8,39,0.00,,,0.00,WUHU216HW,2013-01-13 10:23:00,
2013-01-13 03:26:00,16.0,-4.7,29.64,NNW,338,0.0,1.8,39,0.00,,,0.00,WUHU216HW,2013-01-13 10:26:00,
2013-01-13 03:27:00,16.0,-4.7,29.64,North,0,0.0,1.8,39,0.00,,,0.00,WUHU216HW,2013-01-13 10:27:00,
2013-01-13 03:28:00,16.0,-4.7,29.64,NW,315,0.4,1.8,39,0.00,,,0.00,WUHU216HW,2013-01-13 10:28:00,
2013-01-13 03:31:00,16.0,-4.7,29.64,NW,315,0.4,1.8,39,0.00,,,0.00,WUHU216HW,2013-01-13 10:31:00,
2013-01-13 03:32:00,15.8,-4.8,29.64,NW,315,0.9,1.8,39,0.00,,,0.00,WUHU216HW,2013-01-13 10:32:00,
2013-01-13 03:33:00,16.0,-4.7,29.64,WNW,293,1.1,1.1,39,0.00,,,0.00,WUHU216HW,2013-01-13 10:33:00,
2013-01-13 03:36:00,15.8,-4.8,29.64,NW,315,1.3,2.0,39,0.00,,,0.00,WUHU216HW,2013-01-13 10:36:00,
2013-01-13 03:38:00,15.8,-4.8,29.64,WNW,293,1.1,2.0,39,0.00,,,0.00,WUHU216HW,2013-01-13 10:38:00,
2013-01-13 03:41:00,16.0,-4.7,29.64,NNW,338,1.8,2.2,39,0.00,,,0.00,WUHU216HW,2013-01-13 10:41:00,
2013-01-13 03:42:00,16.0,-4.1,29.64,NW,315,1.6,2.2,40,0.00,,,0.00,WUHU216HW,2013-01-13 10:42:00,
2013-01-13 03:43:00,16.0,-4.1,29.64,NW,315,0.4,2.2,40,0.00,,,0.00,WUHU216HW,2013-01-13 10:43:00,
2013-01-13 03:44:00,16.0,-4.1,29.64,NW,315,0.4,2.2,40,0.00,,,0.00,WUHU216HW,2013-01-13 10:44:00,
2013-01-13 03:47:00,15.8,-4.3,29.64,NW,315,0.9,2.2,40,0.00,,,0.00,WUHU216HW,2013-01-13 10:47:00,
2013-01-13 03:48:00,15.8,-4.3,29.64,NW,315,0.7,2.2,40,0.00,,,0.00,WUHU216HW,2013-01-13 10:48:00,
2013-01-13 03:49:00,15.8,-4.3,29.64,NNW,338,0.7,2.2,40,0.00,,,0.00,WUHU216HW,2013-01-13 10:49:00,
2013-01-13 03:52:00,15.8,-4.3,29.64,NNW,338,0.7,2.0,40,0.00,,,0.00,WUHU216HW,2013-01-13 10:52:00,
2013-01-13 03:53:00,15.8,-4.3,29.63,NNE,23,0.2,1.6,40,0.00,,,0.00,WUHU216HW,2013-01-13 10:53:00,
2013-01-13 03:54:00,15.8,-4.3,29.63,North,0,0.4,1.6,40,0.00,,,0.00,WUHU216HW,2013-01-13 10:54:00,
2013-01-13 03:57:00,15.8,-4.3,29.63,North,0,1.8,1.8,40,0.00,,,0.00,WUHU216HW,2013-01-13 10:57:00,
2013-01-13 03:58:00,15.8,-4.3,29.63,NNW,338,0.2,1.8,40,0.00,,,0.00,WUHU216HW,2013-01-13 10:58:00,
2013-01-13 03:59:00,15.8,-4.3,29.63,NNW,338,0.2,1.8,40,0.00,,,0.00,WUHU216HW,2013-01-13 10:59:00,
2013-01-13 04:02:00,15.8,-4.3,29.63,North,0,1.1,1.8,40,0.00,,,0.00,WUHU216HW,2013-01-13 11:02:00,
2013-01-13 04:03:00,15.8,-4.3,29.63,North,0,1.6,2.2,40,0.00,,,0.00,WUHU216HW,2013-01-13 11:03:00,
2013-01-13 04:04:00,15.8,-4.3,29.63,North,0,2.2,2.9,40,0.00,,,0.00,WUHU216HW,2013-01-13 11:04:00,
2013-01-13 04:07:00,15.8,-4.3,29.63,North,0,1.8,2.9,40,0.00,,,0.00,WUHU216HW,2013-01-13 11:07:00,
2013-01-13 04:08:00,15.7,-4.5,29.63,North,0,2.2,2.9,40,0.00,,,0.00,WUHU216HW,2013-01-13 11:08:00,
2013-01-13 04:09:00,15.7,-4.5,29.63,North,0,1.6,2.9,40,0.00,,,0.00,WUHU216HW,2013-01-13 11:09:00,
2013-01-13 04:12:00,15.7,-4.5,29.63,North,0,2.0,2.9,40,0.00,,,0.00,WUHU216HW,2013-01-13 11:12:00,
2013-01-13 04:13:00,15.7,-4.5,29.63,North,0,1.8,2.9,40,0.00,,,0.00,WUHU216HW,2013-01-13 11:13:00,
2013-01-13 04:14:00,15.7,-3.9,29.63,North,0,1.6,2.9,41,0.00,,,0.00,WUHU216HW,2013-01-13 11:14:00,
2013-01-13 04:17:00,15.5,-4.1,29.63,NNE,23,0.0,2.2,41,0.00,,,0.00,WUHU216HW,2013-01-13 11:17:00,
2013-01-13 04:18:00,15.5,-4.1,29.63,NNE,23,0.0,2.2,41,0.00,,,0.00,WUHU216HW,2013-01-13 11:18:00,
2013-01-13 04:19:00,15.5,-4.1,29.63,NNE,23,0.0,2.0,41,0.00,,,0.00,WUHU216HW,2013-01-13 11:19:00,
2013-01-13 04:20:00,15.5,-4.1,29.63,NNE,23,0.0,2.0,41,0.00,,,0.00,WUHU216HW,2013-01-13 11:20:00,
2013-01-13 04:22:00,15.5,-4.1,29.63,North,0,0.0,2.0,41,0.00,,,0.00,WUHU216HW,2013-01-13 11:22:00,
2013-01-13 04:23:00,15.5,-4.7,29.63,North,0,0.0,2.0,40,0.00,,,0.00,WUHU216HW,2013-01-13 11:23:00,
2013-01-13 04:24:00,15.5,-4.1,29.63,North,0,0.0,2.0,41,0.00,,,0.00,WUHU216HW,2013-01-13 11:24:00,
2013-01-13 04:25:00,15.5,-4.1,29.63,North,0,0.0,1.8,41,0.00,,,0.00,WUHU216HW,2013-01-13 11:25:00,
2013-01-13 04:27:00,15.5,-4.7,29.63,North,0,0.2,0.9,40,0.00,,,0.00,WUHU216HW,2013-01-13 11:27:00,
2013-01-13 04:28:00,15.5,-4.1,29.63,North,0,0.0,0.9,41,0.00,,,0.00,WUHU216HW,2013-01-13 11:28:00,
2013-01-13 04:29:00,15.3,-4.8,29.63,North,0,0.0,0.9,40,0.00,,,0.00,WUHU216HW,2013-01-13 11:29:00,
2013-01-13 04:30:00,15.3,-4.8,29.63,North,0,0.0,0.9,40,0.00,,,0.00,WUHU216HW,2013-01-13 11:30:00,
2013-01-13 04:33:00,15.3,-4.8,29.63,West,270,1.3,1.3,40,0.00,,,0.00,WUHU216HW,2013-01-13 11:33:00,
2013-01-13 04:34:00,15.3,-4.8,29.63,West,270,0.7,1.3,40,0.00,,,0.00,WUHU216HW,2013-01-13 11:34:00,
2013-01-13 04:35:00,15.3,-4.8,29.63,West,270,1.3,1.3,40,0.00,,,0.00,WUHU216HW,2013-01-13 11:35:00,
2013-01-13 04:38:00,15.1,-4.9,29.63,WSW,248,2.0,2.0,40,0.00,,,0.00,WUHU216HW,2013-01-13 11:38:00,
2013-01-13 04:40:00,15.1,-4.9,29.63,WSW,248,1.1,2.0,40,0.00,,,0.00,WUHU216HW,2013-01-13 11:40:00,
2013-01-13 04:41:00,15.1,-4.9,29.63,WSW,248,0.4,2.0,40,0.00,,,0.00,WUHU216HW,2013-01-13 11:41:00,
2013-01-13 04:43:00,15.1,-4.9,29.63,WSW,248,0.0,2.0,40,0.00,,,0.00,WUHU216HW,2013-01-13 11:43:00,
2013-01-13 04:45:00,15.1,-4.9,29.63,WSW,248,0.0,2.0,40,0.00,,,0.00,WUHU216HW,2013-01-13 11:45:00,
2013-01-13 04:46:00,15.1,-4.9,29.63,WSW,248,0.0,2.0,40,0.00,,,0.00,WUHU216HW,2013-01-13 11:46:00,
2013-01-13 04:48:00,14.9,-4.7,29.63,NNW,338,0.2,2.0,41,0.00,,,0.00,WUHU216HW,2013-01-13 11:48:00,
2013-01-13 04:50:00,14.9,-4.7,29.63,NNW,338,0.0,1.1,41,0.00,,,0.00,WUHU216HW,2013-01-13 11:50:00,
2013-01-13 04:51:00,14.9,-4.7,29.63,NNW,338,0.0,0.7,41,0.00,,,0.00,WUHU216HW,2013-01-13 11:51:00,
2013-01-13 04:53:00,14.8,-5.3,29.63,NNW,338,1.3,1.3,40,0.00,,,0.00,WUHU216HW,2013-01-13 11:53:00,
2013-01-13 04:54:00,14.8,-5.3,29.63,NNW,338,1.3,1.3,40,0.00,,,0.00,WUHU216HW,2013-01-13 11:54:00,
2013-01-13 04:55:00,14.8,-5.3,29.63,NW,315,0.2,1.3,40,0.00,,,0.00,WUHU216HW,2013-01-13 11:55:00,
2013-01-13 04:56:00,14.8,-5.3,29.63,WNW,293,1.6,1.6,40,0.00,,,0.00,WUHU216HW,2013-01-13 11:56:00,
2013-01-13 04:59:00,14.8,-5.3,29.64,WNW,293,1.6,1.8,40,0.00,,,0.00,WUHU216HW,2013-01-13 11:59:00,
2013-01-13 05:00:00,14.8,-5.3,29.64,WNW,293,1.1,1.8,40,0.00,,,0.00,WUHU216HW,2013-01-13 12:00:00,
2013-01-13 05:01:00,14.8,-5.3,29.64,NW,315,0.4,1.8,40,0.00,,,0.00,WUHU216HW,2013-01-13 12:01:00,
2013-01-13 05:04:00,14.8,-5.3,29.63,NW,315,0.0,1.8,40,0.00,,,0.00,WUHU216HW,2013-01-13 12:04:00,
2013-01-13 05:05:00,14.8,-5.3,29.63,NW,315,0.2,1.8,40,0.00,,,0.00,WUHU216HW,2013-01-13 12:05:00,
2013-01-13 05:06:00,14.6,-5.5,29.64,NW,315,0.2,1.8,40,0.00,,,0.00,WUHU216HW,2013-01-13 12:06:00,
2013-01-13 05:09:00,14.6,-5.5,29.64,NW,315,0.0,1.8,40,0.00,,,0.00,WUHU216HW,2013-01-13 12:09:00,
2013-01-13 05:10:00,14.6,-5.5,29.64,NNW,338,0.0,0.9,40,0.00,,,0.00,WUHU216HW,2013-01-13 12:10:00,
2013-01-13 05:11:00,14.6,-5.5,29.64,NNW,338,0.4,0.4,40,0.00,,,0.00,WUHU216HW,2013-01-13 12:11:00,
2013-01-13 05:14:00,14.6,-5.5,29.64,North,0,0.0,0.7,40,0.00,,,0.00,WUHU216HW,2013-01-13 12:14:00,
2013-01-13 05:16:00,14.6,-5.5,29.64,NNW,338,0.4,0.7,40,0.00,,,0.00,WUHU216HW,2013-01-13 12:16:00,
2013-01-13 05:19:00,14.4,-5.6,29.64,NW,315,0.0,0.7,40,0.00,,,0.00,WUHU216HW,2013-01-13 12:19:00,
2013-01-13 05:20:00,14.4,-5.6,29.64,NW,315,0.0,0.7,40,0.00,,,0.00,WUHU216HW,2013-01-13 12:20:00,
2013-01-13 05:22:00,14.4,-5.6,29.64,NNW,338,2.0,2.0,40,0.00,,,0.00,WUHU216HW,2013-01-13 12:22:00,
2013-01-13 05:24:00,14.2,-5.3,29.65,NNW,338,2.5,2.5,41,0.00,,,0.00,WUHU216HW,2013-01-13 12:24:00,
2013-01-13 05:25:00,14.2,-5.3,29.64,NNW,338,2.7,2.7,41,0.00,,,0.00,WUHU216HW,2013-01-13 12:25:00,
2013-01-13 05:26:00,14.2,-5.3,29.64,NNW,338,2.0,2.7,41,0.00,,,0.00,WUHU216HW,2013-01-13 12:26:00,
2013-01-13 05:27:00,14.2,-5.3,29.64,NW,315,1.8,2.7,41,0.00,,,0.00,WUHU216HW,2013-01-13 12:27:00,
2013-01-13 05:30:00,14.0,-5.5,29.64,NNW,338,1.8,2.7,41,0.00,,,0.00,WUHU216HW,2013-01-13 12:30:00,
2013-01-13 05:31:00,14.0,-5.5,29.65,NNW,338,0.4,2.7,41,0.00,,,0.00,WUHU216HW,2013-01-13 12:31:00,
2013-01-13 05:32:00,14.0,-5.5,29.64,North,0,0.2,2.7,41,0.00,,,0.00,WUHU216HW,2013-01-13 12:32:00,
2013-01-13 05:35:00,14.0,-5.5,29.64,North,0,0.2,2.7,41,0.00,,,0.00,WUHU216HW,2013-01-13 12:35:00,
2013-01-13 05:36:00,14.0,-5.5,29.65,NNW,338,0.0,2.2,41,0.00,,,0.00,WUHU216HW,2013-01-13 12:36:00,
2013-01-13 05:37:00,14.2,-5.3,29.64,NNW,338,0.0,1.8,41,0.00,,,0.00,WUHU216HW,2013-01-13 12:37:00,
2013-01-13 05:40:00,14.2,-5.3,29.64,NNW,338,0.0,0.7,41,0.00,,,0.00,WUHU216HW,2013-01-13 12:40:00,
2013-01-13 05:41:00,14.2,-5.3,29.64,NNW,338,0.0,0.4,41,0.00,,,0.00,WUHU216HW,2013-01-13 12:41:00,
2013-01-13 05:42:00,14.2,-5.3,29.64,NNW,338,0.0,0.4,41,0.00,,,0.00,WUHU216HW,2013-01-13 12:42:00,
2013-01-13 05:45:00,14.2,-5.3,29.64,NNW,338,0.7,1.1,41,0.00,,,0.00,WUHU216HW,2013-01-13 12:45:00,
2013-01-13 05:46:00,14.2,-5.3,29.64,NNW,338,0.7,1.1,41,0.00,,,0.00,WUHU216HW,2013-01-13 12:46:00,
2013-01-13 05:47:00,14.2,-5.3,29.64,North,0,0.4,1.1,41,0.00,,,0.00,WUHU216HW,2013-01-13 12:47:00,
2013-01-13 05:50:00,14.2,-5.3,29.64,North,0,3.1,3.1,41,0.00,,,0.00,WUHU216HW,2013-01-13 12:50:00,
2013-01-13 05:51:00,14.2,-5.3,29.64,North,0,2.5,3.1,41,0.00,,,0.00,WUHU216HW,2013-01-13 12:51:00,
2013-01-13 05:53:00,14.2,-5.3,29.64,WNW,293,0.4,3.1,41,0.00,,,0.00,WUHU216HW,2013-01-13 12:53:00,
2013-01-13 05:55:00,14.0,-5.5,29.65,NW,315,1.8,3.1,41,0.00,,,0.00,WUHU216HW,2013-01-13 12:55:00,
2013-01-13 05:56:00,14.0,-5.5,29.65,North,0,2.5,3.1,41,0.00,,,0.00,WUHU216HW,2013-01-13 12:56:00,
2013-01-13 05:58:00,13.9,-5.1,29.64,North,0,2.7,3.4,42,0.00,,,0.00,WUHU216HW,2013-01-13 12:58:00,
2013-01-13 06:00:00,13.5,-5.5,29.64,NW,315,2.0,3.4,42,0.00,,,0.00,WUHU216HW,2013-01-13 13:00:00,
2013-01-13 06:01:00,13.3,-5.7,29.65,NNW,338,1.3,3.4,42,0.00,,,0.00,WUHU216HW,2013-01-13 13:01:00,
2013-01-13 06:03:00,13.3,-5.7,29.65,NNW,338,1.3,3.4,42,0.00,,,0.00,WUHU216HW,2013-01-13 13:03:00,
2013-01-13 06:06:00,13.0,-5.9,29.65,NNW,338,1.3,3.4,42,0.00,,,0.00,WUHU216HW,2013-01-13 13:06:00,
2013-01-13 06:08:00,13.0,-5.9,29.65,NNW,338,2.2,3.4,42,0.00,,,0.00,WUHU216HW,2013-01-13 13:08:00,
2013-01-13 06:11:00,13.0,-5.9,29.65,West,270,1.1,2.7,42,0.00,,,0.00,WUHU216HW,2013-01-13 13:11:00,
2013-01-13 06:13:00,13.0,-5.9,29.65,NNW,338,0.0,2.7,42,0.00,,,0.00,WUHU216HW,2013-01-13 13:13:00,
2013-01-13 06:16:00,13.0,-5.9,29.65,NW,315,0.9,2.7,42,0.00,,,0.00,WUHU216HW,2013-01-13 13:16:00,
2013-01-13 06:18:00,13.0,-5.9,29.65,NW,315,2.0,2.7,42,0.00,,,0.00,WUHU216HW,2013-01-13 13:18:00,
2013-01-13 06:21:00,13.0,-5.9,29.65,NW,315,1.8,2.0,42,0.00,,,0.00,WUHU216HW,2013-01-13 13:21:00,
2013-01-13 06:23:00,13.0,-5.9,29.65,NW,315,2.5,2.5,42,0.00,,,0.00,WUHU216HW,2013-01-13 13:23:00,
2013-01-13 06:26:00,13.0,-5.9,29.65,West,270,1.8,2.5,42,0.00,,,0.00,WUHU216HW,2013-01-13 13:26:00,
2013-01-13 06:27:00,13.0,-5.9,29.65,NW,315,1.8,2.5,42,0.00,,,0.00,WUHU216HW,2013-01-13 13:27:00,
2013-01-13 06:28:00,13.0,-5.9,29.65,NNW,338,2.5,2.5,42,0.00,,,0.00,WUHU216HW,2013-01-13 13:28:00,
2013-01-13 06:31:00,12.8,-5.7,29.65,NNW,338,1.1,2.9,43,0.00,,,0.00,WUHU216HW,2013-01-13 13:31:00,
2013-01-13 06:32:00,12.8,-5.7,29.65,NNW,338,1.6,2.9,43,0.00,,,0.00,WUHU216HW,2013-01-13 13:32:00,
2013-01-13 06:33:00,12.8,-5.7,29.65,NNW,338,1.1,2.9,43,0.00,,,0.00,WUHU216HW,2013-01-13 13:33:00,
2013-01-13 06:37:00,12.6,-5.8,29.65,NNW,338,1.1,2.9,43,0.00,,,0.00,WUHU216HW,2013-01-13 13:37:00,
2013-01-13 06:38:00,12.6,-5.8,29.65,NNW,338,0.7,2.9,43,0.00,,,0.00,WUHU216HW,2013-01-13 13:38:00,
2013-01-13 06:42:00,12.6,-5.8,29.65,NNW,338,0.4,2.0,43,0.00,,,0.00,WUHU216HW,2013-01-13 13:42:00,
2013-01-13 06:43:00,12.6,-5.8,29.65,North,0,0.9,1.8,43,0.00,,,0.00,WUHU216HW,2013-01-13 13:43:00,
2013-01-13 06:47:00,12.6,-5.8,29.65,NNW,338,0.2,1.8,43,0.00,,,0.00,WUHU216HW,2013-01-13 13:47:00,
2013-01-13 06:48:00,12.6,-5.8,29.65,NNW,338,1.3,1.8,43,0.00,,,0.00,WUHU216HW,2013-01-13 13:48:00,
2013-01-13 06:52:00,12.6,-5.8,29.65,NNW,338,0.4,1.8,43,0.00,,,0.00,WUHU216HW,2013-01-13 13:52:00,
2013-01-13 06:53:00,12.6,-5.8,29.65,NNW,338,0.0,1.8,43,0.00,,,0.00,WUHU216HW,2013-01-13 13:53:00,
2013-01-13 06:54:00,12.6,-5.8,29.65,NNW,338,0.2,1.8,43,0.00,,,0.00,WUHU216HW,2013-01-13 13:54:00,
2013-01-13 06:57:00,12.8,-5.7,29.65,NNW,338,0.9,1.6,43,0.00,,,0.00,WUHU216HW,2013-01-13 13:57:00,
2013-01-13 06:58:00,12.8,-5.7,29.65,NNW,338,0.0,1.6,43,0.00,,,0.00,WUHU216HW,2013-01-13 13:58:00,
2013-01-13 06:59:00,12.8,-5.7,29.65,NNW,338,0.4,1.6,43,0.00,,,0.00,WUHU216HW,2013-01-13 13:59:00,
2013-01-13 07:02:00,12.8,-5.7,29.65,NW,315,0.2,1.1,43,0.00,,,0.00,WUHU216HW,2013-01-13 14:02:00,
2013-01-13 07:03:00,12.8,-5.7,29.65,NNW,338,0.4,1.1,43,0.00,,,0.00,WUHU216HW,2013-01-13 14:03:00,
2013-01-13 07:04:00,12.8,-5.7,29.65,NNW,338,0.2,1.1,43,0.00,,,0.00,WUHU216HW,2013-01-13 14:04:00,
2013-01-13 07:07:00,12.8,-5.7,29.65,NW,315,1.3,1.3,43,0.00,,,0.00,WUHU216HW,2013-01-13 14:07:00,
2013-01-13 07:08:00,12.8,-5.7,29.66,NNW,338,1.6,1.6,43,0.00,,,0.00,WUHU216HW,2013-01-13 14:08:00,
2013-01-13 07:09:00,12.8,-5.7,29.65,NNW,338,0.0,1.6,43,0.00,,,0.00,WUHU216HW,2013-01-13 14:09:00,
2013-01-13 07:12:00,12.8,-5.7,29.66,North,0,0.0,1.6,43,0.00,,,0.00,WUHU216HW,2013-01-13 14:12:00,
2013-01-13 07:13:00,12.8,-6.1,29.66,NE,45,0.7,1.6,42,0.00,,,0.00,WUHU216HW,2013-01-13 14:13:00,
2013-01-13 07:14:00,12.6,-6.3,29.66,NE,45,0.2,1.6,42,0.00,,,0.00,WUHU216HW,2013-01-13 14:14:00,
2013-01-13 07:17:00,12.6,-6.3,29.66,East,90,0.0,1.6,42,0.00,,,0.00,WUHU216HW,2013-01-13 14:17:00,
2013-01-13 07:18:00,12.6,-6.3,29.66,East,90,0.0,1.6,42,0.00,,,0.00,WUHU216HW,2013-01-13 14:18:00,
2013-01-13 07:19:00,12.6,-6.3,29.66,East,90,0.0,1.1,42,0.00,,,0.00,WUHU216HW,2013-01-13 14:19:00,
2013-01-13 07:22:00,12.6,-6.3,29.66,East,90,0.0,1.1,42,0.00,,,0.00,WUHU216HW,2013-01-13 14:22:00,
2013-01-13 07:23:00,12.6,-6.3,29.66,East,90,0.0,1.1,42,0.00,,,0.00,WUHU216HW,2013-01-13 14:23:00,
2013-01-13 07:24:00,12.6,-6.3,29.66,East,90,0.0,1.1,42,0.00,,,0.00,WUHU216HW,2013-01-13 14:24:00,
2013-01-13 07:27:00,12.6,-6.3,29.66,WNW,293,0.0,0.2,42,0.00,,,0.00,WUHU216HW,2013-01-13 14:27:00,
2013-01-13 07:28:00,12.6,-6.3,29.66,WNW,293,0.0,0.2,42,0.00,,,0.00,WUHU216HW,2013-01-13 14:28:00,
2013-01-13 07:29:00,12.6,-6.3,29.66,WNW,293,0.0,0.2,42,0.00,,,0.00,WUHU216HW,2013-01-13 14:29:00,
2013-01-13 07:30:00,12.6,-6.3,29.66,WNW,293,0.0,0.2,42,0.00,,,0.00,WUHU216HW,2013-01-13 14:30:00,
2013-01-13 07:32:00,12.8,-6.1,29.67,WNW,293,0.0,0.0,42,0.00,,,0.00,WUHU216HW,2013-01-13 14:32:00,
2013-01-13 07:33:00,12.8,-6.1,29.67,NW,315,0.0,0.2,42,0.00,,,0.00,WUHU216HW,2013-01-13 14:33:00,
2013-01-13 07:34:00,12.8,-6.1,29.66,NW,315,0.0,0.2,42,0.00,,,0.00,WUHU216HW,2013-01-13 14:34:00,
2013-01-13 07:35:00,13.0,-5.9,29.66,NW,315,0.0,0.2,42,0.00,,,0.00,WUHU216HW,2013-01-13 14:35:00,
2013-01-13 07:37:00,13.3,-5.2,29.66,NNW,338,0.2,1.1,43,0.00,,,0.00,WUHU216HW,2013-01-13 14:37:00,
2013-01-13 07:39:00,13.3,-5.2,29.67,NNW,338,0.2,1.1,43,0.00,,,0.00,WUHU216HW,2013-01-13 14:39:00,
2013-01-13 07:40:00,13.7,-4.9,29.66,NNW,338,0.7,1.1,43,0.00,,,0.00,WUHU216HW,2013-01-13 14:40:00,
2013-01-13 07:42:00,13.9,-4.7,29.66,NNW,338,0.4,1.1,43,0.00,,,0.00,WUHU216HW,2013-01-13 14:42:00,
2013-01-13 07:44:00,14.0,-4.5,29.66,NW,315,0.9,1.1,43,0.00,,,0.00,WUHU216HW,2013-01-13 14:44:00,
2013-01-13 07:45:00,14.4,-4.2,29.67,North,0,1.6,2.2,43,0.00,,,0.00,WUHU216HW,2013-01-13 14:45:00,
2013-01-13 07:47:00,14.8,-3.9,29.67,NNW,338,0.4,2.2,43,0.00,,,0.00,WUHU216HW,2013-01-13 14:47:00,
2013-01-13 07:49:00,14.8,-3.9,29.67,North,0,0.2,2.2,43,0.00,,,0.00,WUHU216HW,2013-01-13 14:49:00,
2013-01-13 07:50:00,15.1,-3.5,29.67,North,0,0.0,2.2,43,0.00,,,0.00,WUHU216HW,2013-01-13 14:50:00,
2013-01-13 07:52:00,15.3,-3.3,29.67,North,0,0.2,2.2,43,0.00,,,0.00,WUHU216HW,2013-01-13 14:52:00,
2013-01-13 07:54:00,15.5,-3.2,29.67,North,0,0.0,2.2,43,0.00,,,0.00,WUHU216HW,2013-01-13 14:54:00,
2013-01-13 07:56:00,15.8,-2.9,29.67,NNW,338,0.0,1.1,43,0.00,,,0.00,WUHU216HW,2013-01-13 14:56:00,
2013-01-13 07:58:00,16.2,-2.5,29.67,WNW,293,0.0,0.2,43,0.00,,,0.00,WUHU216HW,2013-01-13 14:58:00,
2013-01-13 07:59:00,16.4,-2.3,29.67,WNW,293,0.7,0.7,43,0.00,,,0.00,WUHU216HW,2013-01-13 14:59:00,
2013-01-13 08:01:00,16.7,-2.4,29.67,West,270,0.0,0.7,42,0.00,,,0.00,WUHU216HW,2013-01-13 15:01:00,
2013-01-13 08:03:00,16.9,-2.2,29.67,West,270,0.0,0.7,42,0.00,,,0.00,WUHU216HW,2013-01-13 15:03:00,
2013-01-13 08:04:00,17.1,-2.1,29.68,NNW,338,0.0,0.7,42,0.00,,,0.00,WUHU216HW,2013-01-13 15:04:00,
2013-01-13 08:05:00,17.1,-2.1,29.68,NNW,338,0.0,0.7,42,0.00,,,0.00,WUHU216HW,2013-01-13 15:05:00,
2013-01-13 08:06:00,17.5,-1.8,29.68,NNW,338,0.0,0.7,42,0.00,,,0.00,WUHU216HW,2013-01-13 15:06:00,
2013-01-13 08:08:00,17.6,-1.6,29.68,NNW,338,0.0,0.7,42,0.00,,,0.00,WUHU216HW,2013-01-13 15:08:00,
2013-01-13 08:09:00,17.6,-1.6,29.68,North,0,0.0,0.2,42,0.00,,,0.00,WUHU216HW,2013-01-13 15:09:00,
2013-01-13 08:10:00,17.8,-1.4,29.68,NE,45,0.0,0.2,42,0.00,,,0.00,WUHU216HW,2013-01-13 15:10:00,
2013-01-13 08:11:00,18.0,-1.3,29.68,SE,135,0.2,1.1,42,0.00,,,0.00,WUHU216HW,2013-01-13 15:11:00,
2013-01-13 08:13:00,18.4,-1.4,29.68,ENE,68,0.4,1.1,41,0.00,,,0.00,WUHU216HW,2013-01-13 15:13:00,
2013-01-13 08:14:00,18.4,-1.4,29.68,ENE,68,0.2,1.1,41,0.00,,,0.00,WUHU216HW,2013-01-13 15:14:00,
2013-01-13 08:15:00,18.5,-1.3,29.68,ENE,68,0.4,1.1,41,0.00,,,0.00,WUHU216HW,2013-01-13 15:15:00,
2013-01-13 08:16:00,18.7,-1.1,29.68,ENE,68,0.2,1.1,41,0.00,,,0.00,WUHU216HW,2013-01-13 15:16:00,
2013-01-13 08:18:00,18.9,-0.9,29.68,NE,45,0.0,1.1,41,0.00,,,0.00,WUHU216HW,2013-01-13 15:18:00,
2013-01-13 08:19:00,19.1,-0.7,29.68,NE,45,0.0,1.1,41,0.00,,,0.00,WUHU216HW,2013-01-13 15:19:00,
2013-01-13 08:20:00,19.1,-1.3,29.68,NE,45,0.0,1.1,40,0.00,,,0.00,WUHU216HW,2013-01-13 15:20:00,
2013-01-13 08:21:00,19.3,-1.1,29.68,NE,45,0.0,1.1,40,0.00,,,0.00,WUHU216HW,2013-01-13 15:21:00,
2013-01-13 08:23:00,19.6,-0.7,29.68,ESE,113,0.0,0.4,40,0.00,,,0.00,WUHU216HW,2013-01-13 15:23:00,
2013-01-13 08:24:00,19.8,-0.1,29.68,SE,135,1.1,1.1,41,0.00,,,0.00,WUHU216HW,2013-01-13 15:24:00,
2013-01-13 08:25:00,19.8,-0.1,29.68,SE,135,0.2,1.1,41,0.00,,,0.00,WUHU216HW,2013-01-13 15:25:00,
2013-01-13 08:27:00,20.0,0.1,29.68,SSE,158,0.4,1.1,41,0.00,,,0.00,WUHU216HW,2013-01-13 15:27:00,
2013-01-13 08:28:00,20.2,0.2,29.68,SE,135,0.0,1.1,41,0.00,,,0.00,WUHU216HW,2013-01-13 15:28:00,
2013-01-13 08:29:00,20.3,-0.1,29.68,NE,45,1.6,1.6,40,0.00,,,0.00,WUHU216HW,2013-01-13 15:29:00,
2013-01-13 08:31:00,20.5,0.1,29.68,NE,45,0.2,1.8,40,0.00,,,0.00,WUHU216HW,2013-01-13 15:31:00,
2013-01-13 08:32:00,20.5,0.1,29.69,ESE,113,1.6,1.8,40,0.00,,,0.00,WUHU216HW,2013-01-13 15:32:00,
2013-01-13 08:33:00,20.7,-0.3,29.69,NE,45,0.7,1.8,39,0.00,,,0.00,WUHU216HW,2013-01-13 15:33:00,
2013-01-13 08:34:00,20.9,-0.2,29.69,NE,45,0.4,1.8,39,0.00,,,0.00,WUHU216HW,2013-01-13 15:34:00,
2013-01-13 08:36:00,20.9,-0.2,29.69,ENE,68,0.0,1.8,39,0.00,,,0.00,WUHU216HW,2013-01-13 15:36:00,
2013-01-13 08:37:00,20.9,-0.2,29.69,ENE,68,0.0,1.8,39,0.00,,,0.00,WUHU216HW,2013-01-13 15:37:00,
2013-01-13 08:38:00,21.1,-0.1,29.69,East,90,0.2,1.8,39,0.00,,,0.00,WUHU216HW,2013-01-13 15:38:00,
2013-01-13 08:39:00,21.2,0.1,29.69,East,90,1.6,2.5,39,0.00,,,0.00,WUHU216HW,2013-01-13 15:39:00,
2013-01-13 08:41:00,21.2,0.1,29.69,NE,45,0.7,2.5,39,0.00,,,0.00,WUHU216HW,2013-01-13 15:41:00,
2013-01-13 08:42:00,21.6,-0.2,29.69,NNE,23,0.9,2.5,38,0.00,,,0.00,WUHU216HW,2013-01-13 15:42:00,
2013-01-13 08:43:00,21.8,0.0,29.69,North,0,1.1,2.5,38,0.00,,,0.00,WUHU216HW,2013-01-13 15:43:00,
2013-01-13 08:45:00,22.0,0.2,29.69,NNE,23,0.0,2.5,38,0.00,,,0.00,WUHU216HW,2013-01-13 15:45:00,
2013-01-13 08:46:00,22.1,0.3,29.69,NE,45,3.1,3.1,38,0.00,,,0.00,WUHU216HW,2013-01-13 15:46:00,
2013-01-13 08:48:00,22.5,0.0,29.69,NE,45,1.6,3.1,37,0.00,,,0.00,WUHU216HW,2013-01-13 15:48:00,
2013-01-13 08:50:00,22.5,0.0,29.69,NE,45,0.0,3.1,37,0.00,,,0.00,WUHU216HW,2013-01-13 15:50:00,
2013-01-13 08:51:00,22.7,0.2,29.69,SE,135,2.0,3.1,37,0.00,,,0.00,WUHU216HW,2013-01-13 15:51:00,
2013-01-13 08:53:00,22.7,0.2,29.69,ENE,68,1.8,3.1,37,0.00,,,0.00,WUHU216HW,2013-01-13 15:53:00,
2013-01-13 08:55:00,22.7,-0.4,29.69,NE,45,3.1,3.6,36,0.00,,,0.00,WUHU216HW,2013-01-13 15:55:00,
2013-01-13 08:56:00,22.7,-1.1,29.69,North,0,1.1,3.6,35,0.00,,,0.00,WUHU216HW,2013-01-13 15:56:00,
2013-01-13 08:58:00,22.7,-0.4,29.69,North,0,0.7,3.6,36,0.00,,,0.00,WUHU216HW,2013-01-13 15:58:00,
2013-01-13 09:00:00,22.9,-0.9,29.69,ENE,68,3.1,4.0,35,0.00,,,0.00,WUHU216HW,2013-01-13 16:00:00,
2013-01-13 09:01:00,22.9,-0.9,29.69,ENE,68,3.4,4.3,35,0.00,,,0.00,WUHU216HW,2013-01-13 16:01:00,
2013-01-13 09:03:00,23.0,-0.7,29.69,NE,45,3.4,4.3,35,0.00,,,0.00,WUHU216HW,2013-01-13 16:03:00,
2013-01-13 09:05:00,23.2,-0.5,29.69,NNE,23,2.9,4.3,35,0.00,,,0.00,WUHU216HW,2013-01-13 16:05:00,
2013-01-13 09:06:00,23.4,-0.3,29.69,North,0,2.0,4.3,35,0.00,,,0.00,WUHU216HW,2013-01-13 16:06:00,
2013-01-13 09:08:00,23.6,-0.3,29.69,NNE,23,4.0,5.1,35,0.00,,,0.00,WUHU216HW,2013-01-13 16:08:00,
2013-01-13 09:10:00,23.9,0.1,29.69,ENE,68,2.0,5.1,35,0.00,,,0.00,WUHU216HW,2013-01-13 16:10:00,
2013-01-13 09:11:00,24.1,0.3,29.69,NE,45,4.0,5.1,35,0.00,,,0.00,WUHU216HW,2013-01-13 16:11:00,
2013-01-13 09:13:00,24.5,0.5,29.69,NNE,23,1.8,5.1,35,0.00,,,0.00,WUHU216HW,2013-01-13 16:13:00,
2013-01-13 09:14:00,24.7,0.7,29.69,NE,45,1.1,5.1,35,0.00,,,0.00,WUHU216HW,2013-01-13 16:14:00,
2013-01-13 09:15:00,25.0,1.1,29.69,NNW,338,2.5,5.1,35,0.00,,,0.00,WUHU216HW,2013-01-13 16:15:00,
2013-01-13 09:16:00,25.4,1.4,29.69,NW,315,3.1,5.1,35,0.00,,,0.00,WUHU216HW,2013-01-13 16:16:00,
2013-01-13 09:18:00,25.6,1.5,29.69,North,0,2.2,4.0,35,0.00,,,0.00,WUHU216HW,2013-01-13 16:18:00,
2013-01-13 09:19:00,25.9,1.2,29.69,NNE,23,2.9,4.0,34,0.00,,,0.00,WUHU216HW,2013-01-13 16:19:00,
2013-01-13 09:20:00,26.3,1.5,29.69,North,0,2.7,4.0,34,0.00,,,0.00,WUHU216HW,2013-01-13 16:20:00,
2013-01-13 09:21:00,26.3,1.5,29.69,North,0,3.4,4.0,34,0.00,,,0.00,WUHU216HW,2013-01-13 16:21:00,
2013-01-13 09:23:00,26.5,0.4,29.69,North,0,3.4,5.1,32,0.00,,,0.00,WUHU216HW,2013-01-13 16:23:00,
2013-01-13 09:24:00,26.3,0.3,29.69,NNE,23,2.5,5.1,32,0.00,,,0.00,WUHU216HW,2013-01-13 16:24:00,
2013-01-13 09:25:00,26.5,0.4,29.69,North,0,1.8,5.1,32,0.00,,,0.00,WUHU216HW,2013-01-13 16:25:00,
2013-01-13 09:26:00,26.3,0.3,29.69,North,0,2.0,5.1,32,0.00,,,0.00,WUHU216HW,2013-01-13 16:26:00,
2013-01-13 09:28:00,26.5,1.0,29.69,NE,45,4.3,5.1,33,0.00,,,0.00,WUHU216HW,2013-01-13 16:28:00,
2013-01-13 09:29:00,26.5,0.4,29.69,NNE,23,3.4,5.1,32,0.00,,,0.00,WUHU216HW,2013-01-13 16:29:00,
2013-01-13 09:30:00,26.5,1.0,29.69,NE,45,4.0,5.1,33,0.00,,,0.00,WUHU216HW,2013-01-13 16:30:00,
2013-01-13 09:31:00,26.3,0.3,29.69,NE,45,4.7,5.1,32,0.00,,,0.00,WUHU216HW,2013-01-13 16:31:00,
2013-01-13 09:33:00,26.1,-0.5,29.69,ENE,68,2.9,4.9,31,0.00,,,0.00,WUHU216HW,2013-01-13 16:33:00,
2013-01-13 09:34:00,25.9,-0.6,29.69,NE,45,4.7,4.9,31,0.00,,,0.00,WUHU216HW,2013-01-13 16:34:00,
2013-01-13 09:35:00,25.6,-1.0,29.69,North,0,2.9,4.9,31,0.00,,,0.00,WUHU216HW,2013-01-13 16:35:00,
2013-01-13 09:36:00,25.2,-1.3,29.69,North,0,3.8,4.9,31,0.00,,,0.00,WUHU216HW,2013-01-13 16:36:00,
2013-01-13 09:39:00,24.8,-0.9,29.69,NE,45,2.9,4.7,32,0.00,,,0.00,WUHU216HW,2013-01-13 16:39:00,
2013-01-13 09:40:00,25.0,-0.8,29.69,NE,45,2.9,4.7,32,0.00,,,0.00,WUHU216HW,2013-01-13 16:40:00,
2013-01-13 09:41:00,25.0,-0.8,29.69,East,90,1.8,4.7,32,0.00,,,0.00,WUHU216HW,2013-01-13 16:41:00,
2013-01-13 09:44:00,25.0,-0.8,29.69,North,0,3.6,4.7,32,0.00,,,0.00,WUHU216HW,2013-01-13 16:44:00,
2013-01-13 09:45:00,25.0,-0.8,29.69,North,0,3.6,4.7,32,0.00,,,0.00,WUHU216HW,2013-01-13 16:45:00,
2013-01-13 09:47:00,25.4,-0.4,29.69,NNE,23,5.4,5.4,32,0.00,,,0.00,WUHU216HW,2013-01-13 16:47:00,
2013-01-13 09:50:00,25.4,-0.4,29.69,North,0,2.9,5.4,32,0.00,,,0.00,WUHU216HW,2013-01-13 16:50:00,
2013-01-13 09:52:00,25.6,-0.4,29.68,NE,45,4.3,5.4,32,0.00,,,0.00,WUHU216HW,2013-01-13 16:52:00,
2013-01-13 09:55:00,26.3,0.3,29.69,NE,45,6.0,6.0,32,0.00,,,0.00,WUHU216HW,2013-01-13 16:55:00,
2013-01-13 09:56:00,26.3,-0.3,29.69,ENE,68,4.5,6.0,31,0.00,,,0.00,WUHU216HW,2013-01-13 16:56:00,
2013-01-13 09:57:00,26.3,-0.3,29.68,NNE,23,2.0,6.0,31,0.00,,,0.00,WUHU216HW,2013-01-13 16:57:00,
2013-01-13 10:00:00,25.7,-0.8,29.69,NE,45,4.7,6.3,31,0.00,,,0.00,WUHU216HW,2013-01-13 17:00:00,
2013-01-13 10:01:00,25.7,-0.8,29.68,ENE,68,4.7,6.3,31,0.00,,,0.00,WUHU216HW,2013-01-13 17:01:00,
2013-01-13 10:02:00,25.6,-1.0,29.69,NNE,23,4.3,6.3,31,0.00,,,0.00,WUHU216HW,2013-01-13 17:02:00,
2013-01-13 10:05:00,25.4,-1.1,29.68,North,0,2.7,6.3,31,0.00,,,0.00,WUHU216HW,2013-01-13 17:05:00,
2013-01-13 10:06:00,25.2,-1.3,29.69,ENE,68,2.9,6.3,31,0.00,,,0.00,WUHU216HW,2013-01-13 17:06:00,
2013-01-13 10:07:00,25.2,-0.6,29.69,NNE,23,3.4,6.3,32,0.00,,,0.00,WUHU216HW,2013-01-13 17:07:00,
2013-01-13 10:10:00,25.6,-0.4,29.69,NE,45,1.8,6.3,32,0.00,,,0.00,WUHU216HW,2013-01-13 17:10:00,
2013-01-13 10:11:00,25.6,-0.4,29.68,ESE,113,2.9,6.3,32,0.00,,,0.00,WUHU216HW,2013-01-13 17:11:00,
2013-01-13 10:12:00,26.1,0.1,29.68,NE,45,3.4,6.3,32,0.00,,,0.00,WUHU216HW,2013-01-13 17:12:00,
2013-01-13 10:15:00,26.5,0.4,29.68,NE,45,4.0,5.1,32,0.00,,,0.00,WUHU216HW,2013-01-13 17:15:00,
2013-01-13 10:16:00,26.6,0.5,29.68,North,0,3.1,5.1,32,0.00,,,0.00,WUHU216HW,2013-01-13 17:16:00,
2013-01-13 10:17:00,26.6,0.5,29.68,North,0,1.8,5.1,32,0.00,,,0.00,WUHU216HW,2013-01-13 17:17:00,
2013-01-13 10:20:00,27.0,0.9,29.68,North,0,0.2,4.7,32,0.00,,,0.00,WUHU216HW,2013-01-13 17:20:00,
2013-01-13 10:21:00,27.2,1.0,29.68,North,0,0.7,4.7,32,0.00,,,0.00,WUHU216HW,2013-01-13 17:21:00,
2013-01-13 10:22:00,27.4,1.2,29.68,ENE,68,1.6,4.7,32,0.00,,,0.00,WUHU216HW,2013-01-13 17:22:00,
2013-01-13 10:25:00,28.4,2.2,29.68,NE,45,0.4,3.8,32,0.00,,,0.00,WUHU216HW,2013-01-13 17:25:00,
2013-01-13 10:26:00,28.6,2.4,29.68,SSW,203,0.2,3.8,32,0.00,,,0.00,WUHU216HW,2013-01-13 17:26:00,
2013-01-13 10:27:00,28.6,2.4,29.68,South,180,1.1,3.8,32,0.00,,,0.00,WUHU216HW,2013-01-13 17:27:00,
2013-01-13 10:31:00,29.7,2.7,29.68,ENE,68,1.1,3.4,31,0.00,,,0.00,WUHU216HW,2013-01-13 17:31:00,
2013-01-13 10:32:00,29.7,2.7,29.68,North,0,1.8,3.4,31,0.00,,,0.00,WUHU216HW,2013-01-13 17:32:00,
2013-01-13 10:36:00,29.9,2.8,29.67,SE,135,0.4,3.4,31,0.00,,,0.00,WUHU216HW,2013-01-13 17:36:00,
2013-01-13 10:37:00,29.9,2.8,29.67,SE,135,0.2,3.4,31,0.00,,,0.00,WUHU216HW,2013-01-13 17:37:00,
2013-01-13 10:38:00,29.9,2.8,29.67,SSE,158,0.0,3.4,31,0.00,,,0.00,WUHU216HW,2013-01-13 17:38:00,
2013-01-13 10:41:00,30.6,3.5,29.67,West,270,0.9,3.1,31,0.00,,,0.00,WUHU216HW,2013-01-13 17:41:00,
2013-01-13 10:42:00,30.6,3.5,29.67,West,270,0.9,3.1,31,0.00,,,0.00,WUHU216HW,2013-01-13 17:42:00,
2013-01-13 10:43:00,31.0,3.8,29.67,SW,225,0.0,2.7,31,0.00,,,0.00,WUHU216HW,2013-01-13 17:43:00,
2013-01-13 10:46:00,31.9,4.6,29.67,ENE,68,2.2,2.7,31,0.00,,,0.00,WUHU216HW,2013-01-13 17:46:00,
2013-01-13 10:47:00,31.9,4.6,29.67,East,90,0.4,4.0,31,0.00,,,0.00,WUHU216HW,2013-01-13 17:47:00,
2013-01-13 10:48:00,32.0,4.8,29.67,SW,225,0.4,4.0,31,0.00,,,0.00,WUHU216HW,2013-01-13 17:48:00,
2013-01-13 10:51:00,32.8,4.8,29.66,WSW,248,2.0,4.0,30,0.00,,,0.00,WUHU216HW,2013-01-13 17:51:00,
2013-01-13 10:52:00,32.8,4.8,29.66,WSW,248,3.4,4.0,30,0.00,,,0.00,WUHU216HW,2013-01-13 17:52:00,
2013-01-13 10:53:00,32.9,5.0,29.66,WSW,248,1.1,4.0,30,0.00,,,0.00,WUHU216HW,2013-01-13 17:53:00,
2013-01-13 10:56:00,32.9,4.1,29.66,NE,45,0.4,4.0,29,0.00,,,0.00,WUHU216HW,2013-01-13 17:56:00,
2013-01-13 10:57:00,33.1,4.2,29.66,NNE,23,0.4,3.4,29,0.00,,,0.00,WUHU216HW,2013-01-13 17:57:00,
2013-01-13 10:58:00,32.8,3.1,29.66,NE,45,3.4,3.4,28,0.00,,,0.00,WUHU216HW,2013-01-13 17:58:00,
2013-01-13 11:01:00,32.4,2.7,29.66,East,90,2.0,4.7,28,0.00,,,0.00,WUHU216HW,2013-01-13 18:01:00,
2013-01-13 11:02:00,32.4,3.6,29.66,East,90,0.7,4.7,29,0.00,,,0.00,WUHU216HW,2013-01-13 18:02:00,
2013-01-13 11:03:00,32.0,3.2,29.66,South,180,2.5,4.7,29,0.00,,,0.00,WUHU216HW,2013-01-13 18:03:00,
2013-01-13 11:07:00,32.0,3.2,29.66,East,90,0.9,4.7,29,0.00,,,0.00,WUHU216HW,2013-01-13 18:07:00,
2013-01-13 11:09:00,32.2,4.3,29.66,SE,135,1.1,4.7,30,0.00,,,0.00,WUHU216HW,2013-01-13 18:09:00,
2013-01-13 11:12:00,32.9,5.0,29.65,SSE,158,0.2,3.1,30,0.00,,,0.00,WUHU216HW,2013-01-13 18:12:00,
2013-01-13 11:14:00,33.1,5.1,29.65,SE,135,0.7,3.4,30,0.00,,,0.00,WUHU216HW,2013-01-13 18:14:00,
2013-01-13 11:17:00,33.7,4.7,29.65,South,180,2.5,4.7,29,0.00,,,0.00,WUHU216HW,2013-01-13 18:17:00,
2013-01-13 11:18:00,33.7,4.7,29.65,SSW,203,3.4,4.7,29,0.00,,,0.00,WUHU216HW,2013-01-13 18:18:00,
2013-01-13 11:19:00,33.7,4.7,29.65,SSE,158,3.6,4.7,29,0.00,,,0.00,WUHU216HW,2013-01-13 18:19:00,
2013-01-13 11:22:00,33.7,3.9,29.65,SSE,158,6.7,6.7,28,0.00,,,0.00,WUHU216HW,2013-01-13 18:22:00,
2013-01-13 11:23:00,33.5,3.7,29.65,SE,135,2.5,6.7,28,0.00,,,0.00,WUHU216HW,2013-01-13 18:23:00,
2013-01-13 11:24:00,33.3,4.4,29.65,SE,135,1.1,6.7,29,0.00,,,0.00,WUHU216HW,2013-01-13 18:24:00,
2013-01-13 11:27:00,32.9,4.1,29.64,ESE,113,2.5,6.7,29,0.00,,,0.00,WUHU216HW,2013-01-13 18:27:00,
2013-01-13 11:28:00,32.9,4.1,29.64,ESE,113,1.1,6.7,29,0.00,,,0.00,WUHU216HW,2013-01-13 18:28:00,
2013-01-13 11:29:00,32.8,4.0,29.64,SSE,158,1.1,6.7,29,0.00,,,0.00,WUHU216HW,2013-01-13 18:29:00,
2013-01-13 11:32:00,32.9,4.1,29.64,South,180,3.8,6.7,29,0.00,,,0.00,WUHU216HW,2013-01-13 18:32:00,
2013-01-13 11:33:00,32.9,4.1,29.64,South,180,4.7,6.0,29,0.00,,,0.00,WUHU216HW,2013-01-13 18:33:00,
2013-01-13 11:34:00,32.8,4.0,29.64,SSE,158,3.4,6.0,29,0.00,,,0.00,WUHU216HW,2013-01-13 18:34:00,
2013-01-13 11:37:00,32.8,4.0,29.63,WSW,248,2.0,6.0,29,0.00,,,0.00,WUHU216HW,2013-01-13 18:37:00,
2013-01-13 11:38:00,32.8,4.0,29.64,WSW,248,2.7,6.0,29,0.00,,,0.00,WUHU216HW,2013-01-13 18:38:00,
2013-01-13 11:39:00,32.8,4.0,29.63,SE,135,0.0,6.0,29,0.00,,,0.00,WUHU216HW,2013-01-13 18:39:00,
2013-01-13 11:42:00,33.1,5.1,29.63,SW,225,1.6,6.0,30,0.00,,,0.00,WUHU216HW,2013-01-13 18:42:00,
2013-01-13 11:43:00,33.1,5.1,29.63,WSW,248,2.5,5.8,30,0.00,,,0.00,WUHU216HW,2013-01-13 18:43:00,
2013-01-13 11:45:00,33.5,5.4,29.63,SSW,203,3.8,5.8,30,0.00,,,0.00,WUHU216HW,2013-01-13 18:45:00,
2013-01-13 11:48:00,33.8,4.9,29.62,SE,135,3.8,4.7,29,0.00,,,0.00,WUHU216HW,2013-01-13 18:48:00,
2013-01-13 11:50:00,33.5,4.6,29.62,SE,135,2.5,5.4,29,0.00,,,0.00,WUHU216HW,2013-01-13 18:50:00,
2013-01-13 11:53:00,33.3,4.4,29.62,South,180,6.3,6.3,29,0.00,,,0.00,WUHU216HW,2013-01-13 18:53:00,
2013-01-13 11:55:00,33.3,4.4,29.62,SSW,203,4.3,6.3,29,0.00,,,0.00,WUHU216HW,2013-01-13 18:55:00,
2013-01-13 11:58:00,33.5,5.4,29.62,SE,135,2.2,6.3,30,0.00,,,0.00,WUHU216HW,2013-01-13 18:58:00,
2013-01-13 12:00:00,33.5,5.4,29.62,SSE,158,3.1,6.3,30,0.00,,,0.00,WUHU216HW,2013-01-13 19:00:00,
2013-01-13 12:03:00,33.5,5.4,29.62,SSW,203,5.1,6.0,30,0.00,,,0.00,WUHU216HW,2013-01-13 19:03:00,
2013-01-13 12:05:00,33.1,5.1,29.61,South,180,2.9,5.8,30,0.00,,,0.00,WUHU216HW,2013-01-13 19:05:00,
2013-01-13 12:08:00,33.1,5.1,29.61,South,180,4.3,7.6,30,0.00,,,0.00,WUHU216HW,2013-01-13 19:08:00,
2013-01-13 12:10:00,32.9,5.0,29.61,SSW,203,0.4,7.6,30,0.00,,,0.00,WUHU216HW,2013-01-13 19:10:00,
2013-01-13 12:13:00,33.1,5.1,29.61,South,180,3.4,7.6,30,0.00,,,0.00,WUHU216HW,2013-01-13 19:13:00,
2013-01-13 12:14:00,33.1,5.1,29.61,South,180,2.9,7.6,30,0.00,,,0.00,WUHU216HW,2013-01-13 19:14:00,
2013-01-13 12:15:00,33.1,5.1,29.61,SSW,203,4.3,7.6,30,0.00,,,0.00,WUHU216HW,2013-01-13 19:15:00,
2013-01-13 12:18:00,33.3,5.3,29.60,SW,225,3.4,5.8,30,0.00,,,0.00,WUHU216HW,2013-01-13 19:18:00,
2013-01-13 12:19:00,33.5,5.4,29.60,SSW,203,1.8,5.8,30,0.00,,,0.00,WUHU216HW,2013-01-13 19:19:00,
2013-01-13 12:20:00,33.5,5.4,29.60,SSE,158,3.6,5.8,30,0.00,,,0.00,WUHU216HW,2013-01-13 19:20:00,
2013-01-13 12:24:00,33.5,5.4,29.60,SSE,158,7.2,8.9,30,0.00,,,0.00,WUHU216HW,2013-01-13 19:24:00,
2013-01-13 12:25:00,33.5,5.4,29.60,South,180,4.5,8.9,30,0.00,,,0.00,WUHU216HW,2013-01-13 19:25:00,
2013-01-13 12:29:00,33.1,5.1,29.60,SE,135,4.7,10.5,30,0.00,,,0.00,WUHU216HW,2013-01-13 19:29:00,
2013-01-13 12:30:00,33.1,5.1,29.60,SSE,158,4.9,10.5,30,0.00,,,0.00,WUHU216HW,2013-01-13 19:30:00,
2013-01-13 12:34:00,32.9,5.0,29.59,SE,135,3.4,10.5,30,0.00,,,0.00,WUHU216HW,2013-01-13 19:34:00,
2013-01-13 12:35:00,32.9,5.0,29.59,East,90,2.2,10.5,30,0.00,,,0.00,WUHU216HW,2013-01-13 19:35:00,
2013-01-13 12:39:00,32.8,4.8,29.59,ESE,113,3.4,7.6,30,0.00,,,0.00,WUHU216HW,2013-01-13 19:39:00,
2013-01-13 12:40:00,32.6,4.6,29.59,ESE,113,2.7,7.6,30,0.00,,,0.00,WUHU216HW,2013-01-13 19:40:00,
2013-01-13 12:44:00,32.4,4.5,29.59,SE,135,5.1,7.8,30,0.00,,,0.00,WUHU216HW,2013-01-13 19:44:00,
2013-01-13 12:45:00,32.4,4.5,29.59,SE,135,6.9,7.8,30,0.00,,,0.00,WUHU216HW,2013-01-13 19:45:00,
2013-01-13 12:46:00,32.4,4.5,29.59,SSE,158,6.9,7.8,30,0.00,,,0.00,WUHU216HW,2013-01-13 19:46:00,
2013-01-13 12:50:00,32.4,4.5,29.59,SSW,203,9.8,11.2,30,0.00,,,0.00,WUHU216HW,2013-01-13 19:50:00,
2013-01-13 12:51:00,32.6,4.6,29.59,SSE,158,4.3,11.2,30,0.00,,,0.00,WUHU216HW,2013-01-13 19:51:00,
2013-01-13 12:55:00,32.6,4.6,29.59,SSW,203,0.4,11.2,30,0.00,,,0.00,WUHU216HW,2013-01-13 19:55:00,
2013-01-13 12:56:00,32.6,4.6,29.59,SSW,203,0.4,11.2,30,0.00,,,0.00,WUHU216HW,2013-01-13 19:56:00,
2013-01-13 13:00:00,32.9,5.0,29.58,SW,225,3.4,8.1,30,0.00,,,0.00,WUHU216HW,2013-01-13 20:00:00,
2013-01-13 13:01:00,33.1,5.1,29.58,West,270,2.2,8.1,30,0.00,,,0.00,WUHU216HW,2013-01-13 20:01:00,
2013-01-13 13:05:00,33.7,5.6,29.58,ENE,68,0.4,7.6,30,0.00,,,0.00,WUHU216HW,2013-01-13 20:05:00,
2013-01-13 13:06:00,33.7,5.6,29.58,North,0,0.4,7.6,30,0.00,,,0.00,WUHU216HW,2013-01-13 20:06:00,
2013-01-13 13:10:00,34.2,5.1,29.58,South,180,4.9,4.9,29,0.00,,,0.00,WUHU216HW,2013-01-13 20:10:00,
2013-01-13 13:11:00,34.2,5.1,29.58,South,180,6.9,7.6,29,0.00,,,0.00,WUHU216HW,2013-01-13 20:11:00,
2013-01-13 13:15:00,34.2,4.3,29.58,SSW,203,6.3,8.5,28,0.00,,,0.00,WUHU216HW,2013-01-13 20:15:00,
2013-01-13 13:16:00,34.2,4.3,29.58,SSW,203,4.7,8.5,28,0.00,,,0.00,WUHU216HW,2013-01-13 20:16:00,
2013-01-13 13:20:00,33.8,4.9,29.57,SE,135,1.1,8.5,29,0.00,,,0.00,WUHU216HW,2013-01-13 20:20:00,
2013-01-13 13:21:00,34.0,5.1,29.57,ESE,113,0.4,8.5,29,0.00,,,0.00,WUHU216HW,2013-01-13 20:21:00,
2013-01-13 13:25:00,34.2,4.3,29.57,South,180,3.4,4.7,28,0.00,,,0.00,WUHU216HW,2013-01-13 20:25:00,
2013-01-13 13:26:00,34.2,4.3,29.57,SSE,158,5.6,5.6,28,0.00,,,0.00,WUHU216HW,2013-01-13 20:26:00,
2013-01-13 13:27:00,34.2,4.3,29.57,SSE,158,5.6,5.6,28,0.00,,,0.00,WUHU216HW,2013-01-13 20:27:00,
2013-01-13 13:31:00,34.2,5.1,29.57,SE,135,5.4,5.6,29,0.00,,,0.00,WUHU216HW,2013-01-13 20:31:00,
2013-01-13 13:32:00,34.2,5.1,29.57,SE,135,5.4,5.6,29,0.00,,,0.00,WUHU216HW,2013-01-13 20:32:00,
2013-01-13 13:36:00,34.2,4.3,29.57,SSW,203,2.9,5.4,28,0.00,,,0.00,WUHU216HW,2013-01-13 20:36:00,
2013-01-13 13:37:00,34.2,4.3,29.57,SSW,203,2.9,5.4,28,0.00,,,0.00,WUHU216HW,2013-01-13 20:37:00,
2013-01-13 13:41:00,34.6,4.6,29.57,South,180,4.7,7.6,28,0.00,,,0.00,WUHU216HW,2013-01-13 20:41:00,
2013-01-13 13:42:00,34.6,4.6,29.57,South,180,4.7,7.6,28,0.00,,,0.00,WUHU216HW,2013-01-13 20:42:00,
2013-01-13 13:46:00,34.2,3.4,29.57,SE,135,5.8,7.8,27,0.00,,,0.00,WUHU216HW,2013-01-13 20:46:00,
2013-01-13 13:47:00,34.2,3.4,29.57,SE,135,5.8,7.8,27,0.00,,,0.00,WUHU216HW,2013-01-13 20:47:00,
2013-01-13 13:52:00,33.7,3.9,29.57,ESE,113,3.6,7.8,28,0.00,,,0.00,WUHU216HW,2013-01-13 20:52:00,
2013-01-13 13:53:00,33.7,3.9,29.57,SE,135,4.7,7.8,28,0.00,,,0.00,WUHU216HW,2013-01-13 20:53:00,
2013-01-13 13:57:00,33.5,3.7,29.57,South,180,6.3,7.8,28,0.00,,,0.00,WUHU216HW,2013-01-13 20:57:00,
2013-01-13 13:58:00,33.5,3.7,29.57,South,180,10.1,10.1,28,0.00,,,0.00,WUHU216HW,2013-01-13 20:58:00,
2013-01-13 14:02:00,33.5,3.7,29.57,SSW,203,4.7,10.1,28,0.00,,,0.00,WUHU216HW,2013-01-13 21:02:00,
2013-01-13 14:03:00,33.5,3.7,29.57,South,180,3.4,10.1,28,0.00,,,0.00,WUHU216HW,2013-01-13 21:03:00,
2013-01-13 14:07:00,33.5,2.8,29.56,SSE,158,8.7,10.1,27,0.00,,,0.00,WUHU216HW,2013-01-13 21:07:00,
2013-01-13 14:08:00,33.5,2.8,29.56,SE,135,8.9,9.4,27,0.00,,,0.00,WUHU216HW,2013-01-13 21:08:00,
2013-01-13 14:12:00,33.1,3.3,29.56,SSE,158,3.4,9.2,28,0.00,,,0.00,WUHU216HW,2013-01-13 21:12:00,
2013-01-13 14:13:00,33.1,3.3,29.56,SSE,158,3.4,9.2,28,0.00,,,0.00,WUHU216HW,2013-01-13 21:13:00,
2013-01-13 14:17:00,33.1,3.3,29.56,SSE,158,6.9,9.2,28,0.00,,,0.00,WUHU216HW,2013-01-13 21:17:00,
2013-01-13 14:18:00,33.1,3.3,29.56,SSE,158,6.9,9.2,28,0.00,,,0.00,WUHU216HW,2013-01-13 21:18:00,
2013-01-13 14:22:00,33.3,3.5,29.56,SW,225,7.8,7.8,28,0.00,,,0.00,WUHU216HW,2013-01-13 21:22:00,
2013-01-13 14:23:00,33.3,3.5,29.56,SW,225,7.8,7.8,28,0.00,,,0.00,WUHU216HW,2013-01-13 21:23:00,
2013-01-13 14:27:00,33.5,3.7,29.56,SSE,158,3.8,10.3,28,0.00,,,0.00,WUHU216HW,2013-01-13 21:27:00,
2013-01-13 14:28:00,33.5,3.7,29.56,SSE,158,3.8,10.3,28,0.00,,,0.00,WUHU216HW,2013-01-13 21:28:00,
2013-01-13 14:33:00,33.5,3.7,29.56,SSE,158,7.4,10.3,28,0.00,,,0.00,WUHU216HW,2013-01-13 21:33:00,
2013-01-13 14:38:00,33.7,3.0,29.56,SSE,158,7.2,9.4,27,0.00,,,0.00,WUHU216HW,2013-01-13 21:38:00,
2013-01-13 14:39:00,33.8,3.2,29.56,SSW,203,6.9,9.4,27,0.00,,,0.00,WUHU216HW,2013-01-13 21:39:00,
2013-01-13 14:43:00,33.8,3.2,29.56,SSE,158,5.4,9.4,27,0.00,,,0.00,WUHU216HW,2013-01-13 21:43:00,
2013-01-13 14:44:00,33.7,3.0,29.56,South,180,8.1,9.4,27,0.00,,,0.00,WUHU216HW,2013-01-13 21:44:00,
2013-01-13 14:48:00,33.5,1.9,29.56,SE,135,8.5,8.9,26,0.00,,,0.00,WUHU216HW,2013-01-13 21:48:00,
2013-01-13 14:49:00,33.3,2.6,29.56,SW,225,2.7,8.9,27,0.00,,,0.00,WUHU216HW,2013-01-13 21:49:00,
2013-01-13 14:53:00,33.3,2.6,29.56,West,270,0.2,8.9,27,0.00,,,0.00,WUHU216HW,2013-01-13 21:53:00,
2013-01-13 14:54:00,33.3,2.6,29.56,West,270,0.2,8.9,27,0.00,,,0.00,WUHU216HW,2013-01-13 21:54:00,
2013-01-13 14:58:00,33.7,2.1,29.56,SSE,158,7.2,8.9,26,0.00,,,0.00,WUHU216HW,2013-01-13 21:58:00,
2013-01-13 14:59:00,33.7,2.1,29.56,SSE,158,7.2,8.9,26,0.00,,,0.00,WUHU216HW,2013-01-13 21:59:00,
2013-01-13 15:03:00,33.5,2.8,29.56,SSE,158,6.3,9.8,27,0.00,,,0.00,WUHU216HW,2013-01-13 22:03:00,
2013-01-13 15:04:00,33.3,2.6,29.56,South,180,6.5,9.8,27,0.00,,,0.00,WUHU216HW,2013-01-13 22:04:00,
2013-01-13 15:08:00,33.3,2.6,29.56,SW,225,4.7,9.8,27,0.00,,,0.00,WUHU216HW,2013-01-13 22:08:00,
2013-01-13 15:09:00,33.5,2.8,29.56,SW,225,3.8,9.8,27,0.00,,,0.00,WUHU216HW,2013-01-13 22:09:00,
2013-01-13 15:14:00,33.5,2.8,29.56,South,180,4.7,7.8,27,0.00,,,0.00,WUHU216HW,2013-01-13 22:14:00,
2013-01-13 15:19:00,33.3,1.8,29.56,SE,135,7.6,7.6,26,0.00,,,0.00,WUHU216HW,2013-01-13 22:19:00,
2013-01-13 15:20:00,33.3,1.8,29.56,SE,135,7.6,7.6,26,0.00,,,0.00,WUHU216HW,2013-01-13 22:20:00,
2013-01-13 15:24:00,32.9,2.4,29.56,SSE,158,3.1,7.6,27,0.00,,,0.00,WUHU216HW,2013-01-13 22:24:00,
2013-01-13 15:25:00,32.9,2.4,29.56,SSE,158,3.1,7.6,27,0.00,,,0.00,WUHU216HW,2013-01-13 22:25:00,
2013-01-13 15:29:00,32.9,2.4,29.56,SSE,158,4.7,6.0,27,0.00,,,0.00,WUHU216HW,2013-01-13 22:29:00,
2013-01-13 15:30:00,32.9,2.4,29.56,SSE,158,4.7,6.0,27,0.00,,,0.00,WUHU216HW,2013-01-13 22:30:00,
2013-01-13 15:34:00,32.9,2.4,29.56,SE,135,1.8,6.0,27,0.00,,,0.00,WUHU216HW,2013-01-13 22:34:00,
2013-01-13 15:35:00,32.9,2.4,29.56,SE,135,1.8,6.0,27,0.00,,,0.00,WUHU216HW,2013-01-13 22:35:00,
2013-01-13 15:39:00,32.9,2.4,29.56,South,180,4.7,5.4,27,0.00,,,0.00,WUHU216HW,2013-01-13 22:39:00,
2013-01-13 15:40:00,32.9,2.4,29.56,South,180,4.7,5.4,27,0.00,,,0.00,WUHU216HW,2013-01-13 22:40:00,
2013-01-13 15:44:00,32.8,2.2,29.56,SE,135,4.0,5.1,27,0.00,,,0.00,WUHU216HW,2013-01-13 22:44:00,
2013-01-13 15:45:00,32.8,2.2,29.56,South,180,2.7,5.1,27,0.00,,,0.00,WUHU216HW,2013-01-13 22:45:00,
2013-01-13 15:46:00,32.8,2.2,29.56,South,180,2.7,5.1,27,0.00,,,0.00,WUHU216HW,2013-01-13 22:46:00,
2013-01-13 15:49:00,32.6,2.0,29.56,SE,135,1.1,4.7,27,0.00,,,0.00,WUHU216HW,2013-01-13 22:49:00,
2013-01-13 15:50:00,32.6,2.0,29.56,SE,135,1.1,4.7,27,0.00,,,0.00,WUHU216HW,2013-01-13 22:50:00,
2013-01-13 15:51:00,32.6,2.0,29.56,ESE,113,0.4,4.7,27,0.00,,,0.00,WUHU216HW,2013-01-13 22:51:00,
2013-01-13 15:55:00,32.6,2.0,29.56,ENE,68,0.0,3.4,27,0.00,,,0.00,WUHU216HW,2013-01-13 22:55:00,
2013-01-13 15:56:00,32.8,2.2,29.56,NE,45,3.1,3.4,27,0.00,,,0.00,WUHU216HW,2013-01-13 22:56:00,
2013-01-13 16:00:00,32.8,2.2,29.56,ESE,113,1.3,3.1,27,0.00,,,0.00,WUHU216HW,2013-01-13 23:00:00,
2013-01-13 16:01:00,32.8,2.2,29.56,SE,135,1.8,3.1,27,0.00,,,0.00,WUHU216HW,2013-01-13 23:01:00,
2013-01-13 16:05:00,32.8,2.2,29.56,SE,135,1.3,4.0,27,0.00,,,0.00,WUHU216HW,2013-01-13 23:05:00,
2013-01-13 16:06:00,32.8,2.2,29.56,ESE,113,4.0,4.0,27,0.00,,,0.00,WUHU216HW,2013-01-13 23:06:00,
2013-01-13 16:10:00,32.8,2.2,29.56,SE,135,1.8,4.0,27,0.00,,,0.00,WUHU216HW,2013-01-13 23:10:00,
2013-01-13 16:11:00,32.8,2.2,29.56,East,90,1.1,4.0,27,0.00,,,0.00,WUHU216HW,2013-01-13 23:11:00,
2013-01-13 16:15:00,32.8,2.2,29.56,SSE,158,3.4,4.0,27,0.00,,,0.00,WUHU216HW,2013-01-13 23:15:00,
2013-01-13 16:17:00,32.8,2.2,29.56,SSE,158,3.4,3.4,27,0.00,,,0.00,WUHU216HW,2013-01-13 23:17:00,
2013-01-13 16:20:00,32.6,1.2,29.56,SSE,158,5.8,5.8,26,0.00,,,0.00,WUHU216HW,2013-01-13 23:20:00,
2013-01-13 16:22:00,32.6,1.2,29.56,SE,135,4.9,5.8,26,0.00,,,0.00,WUHU216HW,2013-01-13 23:22:00,
2013-01-13 16:25:00,32.4,1.0,29.56,SSE,158,5.1,5.8,26,0.00,,,0.00,WUHU216HW,2013-01-13 23:25:00,
2013-01-13 16:26:00,32.4,1.0,29.56,SSE,158,5.1,5.8,26,0.00,,,0.00,WUHU216HW,2013-01-13 23:26:00,
2013-01-13 16:27:00,32.4,1.0,29.56,South,180,4.5,5.8,26,0.00,,,0.00,WUHU216HW,2013-01-13 23:27:00,
2013-01-13 16:30:00,32.2,0.8,29.56,SE,135,3.8,5.6,26,0.00,,,0.00,WUHU216HW,2013-01-13 23:30:00,
2013-01-13 16:31:00,32.2,0.8,29.56,SE,135,3.8,5.6,26,0.00,,,0.00,WUHU216HW,2013-01-13 23:31:00,
2013-01-13 16:32:00,32.2,0.8,29.56,SSE,158,2.9,5.6,26,0.00,,,0.00,WUHU216HW,2013-01-13 23:32:00,
2013-01-13 16:36:00,32.2,0.8,29.56,SSE,158,4.3,4.7,26,0.00,,,0.00,WUHU216HW,2013-01-13 23:36:00,
2013-01-13 16:37:00,32.0,0.7,29.56,SE,135,2.7,4.7,26,0.00,,,0.00,WUHU216HW,2013-01-13 23:37:00,
2013-01-13 16:41:00,32.0,0.7,29.56,SSE,158,5.4,5.4,26,0.00,,,0.00,WUHU216HW,2013-01-13 23:41:00,
2013-01-13 16:42:00,32.0,0.7,29.56,SE,135,6.3,6.3,26,0.00,,,0.00,WUHU216HW,2013-01-13 23:42:00,
2013-01-13 16:46:00,32.0,0.7,29.56,South,180,3.8,6.3,26,0.00,,,0.00,WUHU216HW,2013-01-13 23:46:00,
2013-01-13 16:47:00,32.0,0.7,29.56,South,180,4.9,6.3,26,0.00,,,0.00,WUHU216HW,2013-01-13 23:47:00,
2013-01-13 16:51:00,32.0,1.5,29.56,South,180,2.7,6.3,27,0.00,,,0.00,WUHU216HW,2013-01-13 23:51:00,
2013-01-13 16:52:00,32.0,1.5,29.56,South,180,3.6,4.9,27,0.00,,,0.00,WUHU216HW,2013-01-13 23:52:00,
2013-01-13 16:53:00,32.0,1.5,29.56,SSE,158,2.5,4.9,27,0.00,,,0.00,WUHU216HW,2013-01-13 23:53:00,
2013-01-13 16:56:00,31.9,0.6,29.56,SSE,158,1.1,4.9,26,0.00,,,0.00,WUHU216HW,2013-01-13 23:56:00,
2013-01-13 16:57:00,32.0,0.7,29.56,SSE,158,1.1,3.6,26,0.00,,,0.00,WUHU216HW,2013-01-13 23:57:00,
2013-01-13 16:58:00,31.9,1.4,29.56,SSE,158,0.4,3.6,27,0.00,,,0.00,WUHU216HW,2013-01-13 23:58:00,
2013-01-13 17:01:00,31.9,1.4,29.56,SE,135,0.4,2.5,27,0.00,,,0.00,WUHU216HW,2013-01-14 00:01:00,
2013-01-13 17:03:00,32.0,1.5,29.56,SE,135,0.0,2.2,27,0.00,,,0.00,WUHU216HW,2013-01-14 00:03:00,
2013-01-13 17:06:00,32.0,1.5,29.56,ESE,113,0.0,2.0,27,0.00,,,0.00,WUHU216HW,2013-01-14 00:06:00,
2013-01-13 17:07:00,32.0,1.5,29.56,ESE,113,0.0,2.0,27,0.00,,,0.00,WUHU216HW,2013-01-14 00:07:00,
2013-01-13 17:08:00,32.0,1.5,29.56,SSE,158,0.7,2.0,27,0.00,,,0.00,WUHU216HW,2013-01-14 00:08:00,
2013-01-13 17:12:00,32.0,1.5,29.56,ESE,113,0.9,0.9,27,0.00,,,0.00,WUHU216HW,2013-01-14 00:12:00,
2013-01-13 17:13:00,32.0,1.5,29.56,East,90,0.0,0.9,27,0.00,,,0.00,WUHU216HW,2013-01-14 00:13:00,
2013-01-13 17:17:00,32.0,1.5,29.56,ESE,113,0.0,1.3,27,0.00,,,0.00,WUHU216HW,2013-01-14 00:17:00,
2013-01-13 17:18:00,32.0,1.5,29.56,ESE,113,0.0,1.3,27,0.00,,,0.00,WUHU216HW,2013-01-14 00:18:00,
2013-01-13 17:22:00,32.0,1.5,29.56,ESE,113,0.0,1.3,27,0.00,,,0.00,WUHU216HW,2013-01-14 00:22:00,
2013-01-13 17:23:00,32.0,1.5,29.56,ESE,113,0.0,1.3,27,0.00,,,0.00,WUHU216HW,2013-01-14 00:23:00,
2013-01-13 17:27:00,32.0,1.5,29.56,ESE,113,0.0,0.2,27,0.00,,,0.00,WUHU216HW,2013-01-14 00:27:00,
2013-01-13 17:28:00,32.0,1.5,29.56,ESE,113,0.0,0.2,27,0.00,,,0.00,WUHU216HW,2013-01-14 00:28:00,
2013-01-13 17:32:00,32.0,1.5,29.56,ESE,113,0.0,0.2,27,0.00,,,0.00,WUHU216HW,2013-01-14 00:32:00,
2013-01-13 17:33:00,32.0,1.5,29.56,ESE,113,0.0,0.2,27,0.00,,,0.00,WUHU216HW,2013-01-14 00:33:00,
2013-01-13 17:37:00,32.0,1.5,29.56,ESE,113,0.0,0.0,27,0.00,,,0.00,WUHU216HW,2013-01-14 00:37:00,
2013-01-13 17:38:00,32.0,1.5,29.56,ESE,113,0.0,0.0,27,0.00,,,0.00,WUHU216HW,2013-01-14 00:38:00,
2013-01-13 17:39:00,32.0,1.5,29.56,ESE,113,0.0,0.0,27,0.00,,,0.00,WUHU216HW,2013-01-14 00:39:00,
2013-01-13 17:42:00,32.0,1.5,29.56,ESE,113,0.0,0.0,27,0.00,,,0.00,WUHU216HW,2013-01-14 00:42:00,
2013-01-13 17:43:00,32.0,1.5,29.56,ESE,113,0.0,0.0,27,0.00,,,0.00,WUHU216HW,2013-01-14 00:43:00,
2013-01-13 17:45:00,32.0,1.5,29.56,ESE,113,0.0,0.0,27,0.00,,,0.00,WUHU216HW,2013-01-14 00:45:00,
2013-01-13 17:47:00,32.2,1.7,29.56,ESE,113,0.0,0.0,27,0.00,,,0.00,WUHU216HW,2013-01-14 00:47:00,
2013-01-13 17:48:00,32.2,1.7,29.56,ESE,113,0.0,0.0,27,0.00,,,0.00,WUHU216HW,2013-01-14 00:48:00,
2013-01-13 17:50:00,32.2,1.7,29.56,ESE,113,0.0,0.0,27,0.00,,,0.00,WUHU216HW,2013-01-14 00:50:00,
2013-01-13 17:52:00,32.2,1.7,29.56,ESE,113,0.0,0.0,27,0.00,,,0.00,WUHU216HW,2013-01-14 00:52:00,
2013-01-13 17:53:00,32.2,1.7,29.56,ESE,113,0.0,0.0,27,0.00,,,0.00,WUHU216HW,2013-01-14 00:53:00,
2013-01-13 17:54:00,32.2,1.7,29.56,ESE,113,0.0,0.0,27,0.00,,,0.00,WUHU216HW,2013-01-14 00:54:00,
2013-01-13 17:55:00,32.2,1.7,29.56,ESE,113,0.0,0.0,27,0.00,,,0.00,WUHU216HW,2013-01-14 00:55:00,
2013-01-13 17:58:00,32.2,1.7,29.56,NNW,338,0.2,0.2,27,0.00,,,0.00,WUHU216HW,2013-01-14 00:58:00,
2013-01-13 17:59:00,32.2,1.7,29.56,NNW,338,0.0,0.2,27,0.00,,,0.00,WUHU216HW,2013-01-14 00:59:00,
2013-01-13 18:00:00,32.2,1.7,29.56,NNW,338,0.0,0.2,27,0.00,,,0.00,WUHU216HW,2013-01-14 01:00:00,
2013-01-13 18:03:00,32.0,1.5,29.56,NNW,338,0.0,0.2,27,0.00,,,0.00,WUHU216HW,2013-01-14 01:03:00,
2013-01-13 18:04:00,32.0,1.5,29.56,NNW,338,0.0,0.2,27,0.00,,,0.00,WUHU216HW,2013-01-14 01:04:00,
2013-01-13 18:05:00,32.0,1.5,29.56,NNW,338,0.0,0.2,27,0.00,,,0.00,WUHU216HW,2013-01-14 01:05:00,
2013-01-13 18:08:00,32.0,1.5,29.56,NNW,338,0.0,0.2,27,0.00,,,0.00,WUHU216HW,2013-01-14 01:08:00,
2013-01-13 18:09:00,32.0,1.5,29.56,NNW,338,0.0,0.2,27,0.00,,,0.00,WUHU216HW,2013-01-14 01:09:00,
2013-01-13 18:11:00,32.0,1.5,29.56,NNW,338,0.0,0.2,27,0.00,,,0.00,WUHU216HW,2013-01-14 01:11:00,
2013-01-13 18:13:00,32.0,1.5,29.56,NNW,338,0.0,0.2,27,0.00,,,0.00,WUHU216HW,2013-01-14 01:13:00,
2013-01-13 18:14:00,32.0,1.5,29.56,NNW,338,0.0,0.2,27,0.00,,,0.00,WUHU216HW,2013-01-14 01:14:00,
2013-01-13 18:16:00,32.0,1.5,29.56,NNW,338,0.0,0.0,27,0.00,,,0.00,WUHU216HW,2013-01-14 01:16:00,
2013-01-13 18:18:00,32.0,1.5,29.56,NNW,338,0.0,0.0,27,0.00,,,0.00,WUHU216HW,2013-01-14 01:18:00,
2013-01-13 18:19:00,32.0,1.5,29.56,NNW,338,0.0,0.0,27,0.00,,,0.00,WUHU216HW,2013-01-14 01:19:00,
2013-01-13 18:20:00,32.0,1.5,29.56,NNW,338,0.0,0.0,27,0.00,,,0.00,WUHU216HW,2013-01-14 01:20:00,
2013-01-13 18:22:00,32.0,1.5,29.56,NNW,338,0.0,0.0,27,0.00,,,0.00,WUHU216HW,2013-01-14 01:22:00,
2013-01-13 18:23:00,32.0,1.5,29.56,NNW,338,0.0,0.0,27,0.00,,,0.00,WUHU216HW,2013-01-14 01:23:00,
2013-01-13 18:25:00,32.0,1.5,29.56,NNW,338,0.0,0.0,27,0.00,,,0.00,WUHU216HW,2013-01-14 01:25:00,
2013-01-13 18:27:00,32.0,1.5,29.56,NNW,338,0.0,0.0,27,0.00,,,0.00,WUHU216HW,2013-01-14 01:27:00,
2013-01-13 18:28:00,32.0,1.5,29.56,NNW,338,0.0,0.0,27,0.00,,,0.00,WUHU216HW,2013-01-14 01:28:00,
2013-01-13 18:30:00,32.0,1.5,29.56,NNW,338,0.0,0.0,27,0.00,,,0.00,WUHU216HW,2013-01-14 01:30:00,
2013-01-13 18:32:00,32.0,1.5,29.56,NNW,338,0.0,0.0,27,0.00,,,0.00,WUHU216HW,2013-01-14 01:32:00,
2013-01-13 18:33:00,32.0,1.5,29.56,NNW,338,0.0,0.0,27,0.00,,,0.00,WUHU216HW,2013-01-14 01:33:00,
2013-01-13 18:35:00,32.0,1.5,29.56,NNW,338,0.0,0.0,27,0.00,,,0.00,WUHU216HW,2013-01-14 01:35:00,
2013-01-13 18:37:00,32.0,1.5,29.56,NNW,338,0.4,0.4,27,0.00,,,0.00,WUHU216HW,2013-01-14 01:37:00,
2013-01-13 18:38:00,32.0,1.5,29.56,NW,315,0.4,0.4,27,0.00,,,0.00,WUHU216HW,2013-01-14 01:38:00,
2013-01-13 18:40:00,32.0,1.5,29.56,NW,315,0.4,0.4,27,0.00,,,0.00,WUHU216HW,2013-01-14 01:40:00,
2013-01-13 18:42:00,31.9,1.4,29.56,NW,315,0.9,1.3,27,0.00,,,0.00,WUHU216HW,2013-01-14 01:42:00,
2013-01-13 18:44:00,31.9,1.4,29.56,NW,315,1.1,1.3,27,0.00,,,0.00,WUHU216HW,2013-01-14 01:44:00,
2013-01-13 18:45:00,31.9,1.4,29.56,WNW,293,2.5,2.5,27,0.00,,,0.00,WUHU216HW,2013-01-14 01:45:00,
2013-01-13 18:47:00,31.7,1.3,29.56,WNW,293,2.5,2.5,27,0.00,,,0.00,WUHU216HW,2013-01-14 01:47:00,
2013-01-13 18:49:00,31.7,1.3,29.56,WNW,293,2.7,2.7,27,0.00,,,0.00,WUHU216HW,2013-01-14 01:49:00,
2013-01-13 18:50:00,31.7,1.3,29.56,WNW,293,2.2,2.7,27,0.00,,,0.00,WUHU216HW,2013-01-14 01:50:00,
2013-01-13 18:53:00,31.3,0.9,29.56,NW,315,2.2,2.7,27,0.00,,,0.00,WUHU216HW,2013-01-14 01:53:00,
2013-01-13 18:54:00,31.3,0.9,29.56,WNW,293,1.6,2.7,27,0.00,,,0.00,WUHU216HW,2013-01-14 01:54:00,
2013-01-13 18:55:00,31.3,0.9,29.56,NW,315,2.2,2.7,27,0.00,,,0.00,WUHU216HW,2013-01-14 01:55:00,
2013-01-13 18:56:00,31.3,0.9,29.56,WNW,293,1.6,2.7,27,0.00,,,0.00,WUHU216HW,2013-01-14 01:56:00,
2013-01-13 18:58:00,31.1,0.7,29.56,NW,315,2.5,2.7,27,0.00,,,0.00,WUHU216HW,2013-01-14 01:58:00,
2013-01-13 18:59:00,31.1,0.7,29.56,WNW,293,2.5,2.5,27,0.00,,,0.00,WUHU216HW,2013-01-14 01:59:00,
2013-01-13 19:00:00,31.0,0.5,29.56,WNW,293,2.5,2.5,27,0.00,,,0.00,WUHU216HW,2013-01-14 02:00:00,
2013-01-13 19:01:00,31.0,0.5,29.56,WNW,293,2.0,2.5,27,0.00,,,0.00,WUHU216HW,2013-01-14 02:01:00,
2013-01-13 19:03:00,31.0,0.5,29.56,WNW,293,1.8,2.5,27,0.00,,,0.00,WUHU216HW,2013-01-14 02:03:00,
2013-01-13 19:04:00,30.8,0.5,29.56,WNW,293,1.8,2.5,27,0.00,,,0.00,WUHU216HW,2013-01-14 02:04:00,
2013-01-13 19:06:00,30.8,0.5,29.56,WNW,293,0.7,2.5,27,0.00,,,0.00,WUHU216HW,2013-01-14 02:06:00,
2013-01-13 19:08:00,30.6,0.3,29.56,WNW,293,1.3,2.5,27,0.00,,,0.00,WUHU216HW,2013-01-14 02:08:00,
2013-01-13 19:09:00,30.6,0.3,29.56,NW,315,0.9,2.5,27,0.00,,,0.00,WUHU216HW,2013-01-14 02:09:00,
2013-01-13 19:11:00,30.6,0.3,29.56,West,270,2.5,2.5,27,0.00,,,0.00,WUHU216HW,2013-01-14 02:11:00,
2013-01-13 19:13:00,30.4,0.1,29.56,WNW,293,1.3,2.7,27,0.00,,,0.00,WUHU216HW,2013-01-14 02:13:00,
2013-01-13 19:14:00,30.4,0.1,29.56,West,270,1.8,2.7,27,0.00,,,0.00,WUHU216HW,2013-01-14 02:14:00,
2013-01-13 19:16:00,30.4,0.1,29.56,West,270,0.4,2.7,27,0.00,,,0.00,WUHU216HW,2013-01-14 02:16:00,
2013-01-13 19:19:00,30.4,0.1,29.57,WNW,293,1.1,2.7,27,0.00,,,0.00,WUHU216HW,2013-01-14 02:19:00,
2013-01-13 19:20:00,30.4,0.1,29.57,WNW,293,1.1,2.7,27,0.00,,,0.00,WUHU216HW,2013-01-14 02:20:00,
2013-01-13 19:21:00,30.2,-0.1,29.57,WNW,293,0.7,2.7,27,0.00,,,0.00,WUHU216HW,2013-01-14 02:21:00,
2013-01-13 19:24:00,30.1,-0.3,29.56,NW,315,2.2,2.2,27,0.00,,,0.00,WUHU216HW,2013-01-14 02:24:00,
2013-01-13 19:25:00,30.1,-0.3,29.56,NW,315,2.2,2.2,27,0.00,,,0.00,WUHU216HW,2013-01-14 02:25:00,
2013-01-13 19:26:00,29.9,-0.3,29.57,WNW,293,2.5,2.5,27,0.00,,,0.00,WUHU216HW,2013-01-14 02:26:00,
2013-01-13 19:29:00,29.9,-0.3,29.57,West,270,2.2,2.5,27,0.00,,,0.00,WUHU216HW,2013-01-14 02:29:00,
2013-01-13 19:30:00,29.9,-0.3,29.57,West,270,1.3,2.5,27,0.00,,,0.00,WUHU216HW,2013-01-14 02:30:00,
2013-01-13 19:31:00,29.7,-0.5,29.57,West,270,2.5,2.5,27,0.00,,,0.00,WUHU216HW,2013-01-14 02:31:00,
2013-01-13 19:34:00,29.5,-0.7,29.57,West,270,2.7,2.7,27,0.00,,,0.00,WUHU216HW,2013-01-14 02:34:00,
2013-01-13 19:36:00,29.5,-0.7,29.57,NNW,338,3.1,3.1,27,0.00,,,0.00,WUHU216HW,2013-01-14 02:36:00,
2013-01-13 19:37:00,29.3,0.0,29.57,WNW,293,3.1,3.1,28,0.00,,,0.00,WUHU216HW,2013-01-14 02:37:00,
2013-01-13 19:39:00,29.3,0.0,29.57,NW,315,1.1,3.1,28,0.00,,,0.00,WUHU216HW,2013-01-14 02:39:00,
2013-01-13 19:41:00,29.2,-0.2,29.56,NNW,338,0.2,3.1,28,0.00,,,0.00,WUHU216HW,2013-01-14 02:41:00,
2013-01-13 19:42:00,29.2,-0.2,29.57,NNW,338,0.2,3.1,28,0.00,,,0.00,WUHU216HW,2013-01-14 02:42:00,
2013-01-13 19:45:00,29.2,-0.2,29.57,North,0,3.8,3.8,28,0.00,,,0.00,WUHU216HW,2013-01-14 02:45:00,
2013-01-13 19:46:00,29.0,-0.4,29.57,North,0,1.8,3.8,28,0.00,,,0.00,WUHU216HW,2013-01-14 02:46:00,
2013-01-13 19:47:00,28.8,-0.4,29.57,NNW,338,2.2,3.8,28,0.00,,,0.00,WUHU216HW,2013-01-14 02:47:00,
2013-01-13 19:50:00,28.8,-0.4,29.57,NNW,338,1.6,3.8,28,0.00,,,0.00,WUHU216HW,2013-01-14 02:50:00,
2013-01-13 19:51:00,28.6,-0.6,29.57,NNW,338,1.6,3.8,28,0.00,,,0.00,WUHU216HW,2013-01-14 02:51:00,
2013-01-13 19:52:00,28.6,-0.6,29.57,NNW,338,2.0,3.8,28,0.00,,,0.00,WUHU216HW,2013-01-14 02:52:00,
2013-01-13 19:55:00,28.6,-0.6,29.57,NW,315,0.4,2.2,28,0.00,,,0.00,WUHU216HW,2013-01-14 02:55:00,
2013-01-13 19:56:00,28.4,-0.8,29.57,NNW,338,1.1,2.0,28,0.00,,,0.00,WUHU216HW,2013-01-14 02:56:00,
2013-01-13 19:57:00,28.4,-0.8,29.57,NNW,338,1.1,2.0,28,0.00,,,0.00,WUHU216HW,2013-01-14 02:57:00,
2013-01-13 20:00:00,28.4,-0.8,29.57,West,270,0.7,2.0,28,0.00,,,0.00,WUHU216HW,2013-01-14 03:00:00,
2013-01-13 20:01:00,28.4,-0.8,29.57,NW,315,1.3,2.0,28,0.00,,,0.00,WUHU216HW,2013-01-14 03:01:00,
2013-01-13 20:02:00,28.4,-0.8,29.57,West,270,1.1,2.0,28,0.00,,,0.00,WUHU216HW,2013-01-14 03:02:00,
2013-01-13 20:05:00,28.4,-0.8,29.57,West,270,0.4,1.6,28,0.00,,,0.00,WUHU216HW,2013-01-14 03:05:00,
2013-01-13 20:07:00,28.4,-0.8,29.57,NNW,338,0.4,1.6,28,0.00,,,0.00,WUHU216HW,2013-01-14 03:07:00,
2013-01-13 20:10:00,28.3,-1.0,29.57,NNW,338,2.2,2.2,28,0.00,,,0.00,WUHU216HW,2013-01-14 03:10:00,
2013-01-13 20:12:00,28.3,-1.0,29.57,NNW,338,2.0,2.2,28,0.00,,,0.00,WUHU216HW,2013-01-14 03:12:00,
2013-01-13 20:15:00,27.9,-1.2,29.57,NW,315,1.3,2.2,28,0.00,,,0.00,WUHU216HW,2013-01-14 03:15:00,
2013-01-13 20:17:00,27.9,-1.2,29.57,NW,315,2.0,2.2,28,0.00,,,0.00,WUHU216HW,2013-01-14 03:17:00,
2013-01-13 20:20:00,27.7,-1.4,29.57,NW,315,1.3,2.2,28,0.00,,,0.00,WUHU216HW,2013-01-14 03:20:00,
2013-01-13 20:22:00,27.7,-1.4,29.57,NW,315,2.5,2.5,28,0.00,,,0.00,WUHU216HW,2013-01-14 03:22:00,
2013-01-13 20:23:00,27.5,-1.6,29.57,NNW,338,2.2,2.5,28,0.00,,,0.00,WUHU216HW,2013-01-14 03:23:00,
2013-01-13 20:25:00,27.4,-1.7,29.57,NNW,338,3.6,3.6,28,0.00,,,0.00,WUHU216HW,2013-01-14 03:25:00,
2013-01-13 20:27:00,27.4,-1.7,29.57,NW,315,3.6,3.6,28,0.00,,,0.00,WUHU216HW,2013-01-14 03:27:00,
2013-01-13 20:28:00,27.4,-1.7,29.57,NNW,338,1.8,3.6,28,0.00,,,0.00,WUHU216HW,2013-01-14 03:28:00,
2013-01-13 20:30:00,27.2,-1.1,29.57,North,0,1.6,3.6,29,0.00,,,0.00,WUHU216HW,2013-01-14 03:30:00,
2013-01-13 20:32:00,27.2,-1.1,29.57,NNE,23,2.5,3.6,29,0.00,,,0.00,WUHU216HW,2013-01-14 03:32:00,
2013-01-13 20:33:00,27.2,-1.1,29.57,North,0,3.4,3.6,29,0.00,,,0.00,WUHU216HW,2013-01-14 03:33:00,
2013-01-13 20:35:00,27.2,-1.1,29.57,NNW,338,1.1,3.6,29,0.00,,,0.00,WUHU216HW,2013-01-14 03:35:00,
2013-01-13 20:37:00,27.2,-1.1,29.57,NNW,338,1.1,3.4,29,0.00,,,0.00,WUHU216HW,2013-01-14 03:37:00,
2013-01-13 20:38:00,27.2,-1.1,29.57,NNW,338,1.1,3.4,29,0.00,,,0.00,WUHU216HW,2013-01-14 03:38:00,
2013-01-13 20:40:00,27.2,-1.1,29.57,NW,315,2.0,3.4,29,0.00,,,0.00,WUHU216HW,2013-01-14 03:40:00,
2013-01-13 20:42:00,27.2,-1.1,29.57,NNW,338,0.4,2.0,29,0.00,,,0.00,WUHU216HW,2013-01-14 03:42:00,
2013-01-13 20:43:00,27.2,-1.1,29.57,NNW,338,0.4,2.0,29,0.00,,,0.00,WUHU216HW,2013-01-14 03:43:00,
2013-01-13 20:45:00,27.2,-1.1,29.57,NNW,338,2.2,2.2,29,0.00,,,0.00,WUHU216HW,2013-01-14 03:45:00,
2013-01-13 20:47:00,27.0,-1.3,29.57,North,0,1.1,2.2,29,0.00,,,0.00,WUHU216HW,2013-01-14 03:47:00,
2013-01-13 20:48:00,27.0,-1.3,29.57,North,0,1.1,2.2,29,0.00,,,0.00,WUHU216HW,2013-01-14 03:48:00,
2013-01-13 20:51:00,27.0,-0.3,29.57,NNE,23,1.8,2.2,30,0.00,,,0.00,WUHU216HW,2013-01-14 03:51:00,
2013-01-13 20:52:00,27.0,-0.3,29.57,NNW,338,0.4,2.2,30,0.00,,,0.00,WUHU216HW,2013-01-14 03:52:00,
2013-01-13 20:53:00,27.2,-0.3,29.57,NNW,338,1.1,2.2,30,0.00,,,0.00,WUHU216HW,2013-01-14 03:53:00,
2013-01-13 20:54:00,27.2,-0.3,29.57,NNW,338,1.1,2.2,30,0.00,,,0.00,WUHU216HW,2013-01-14 03:54:00,
2013-01-13 20:56:00,27.2,-0.3,29.57,NW,315,1.1,1.8,30,0.00,,,0.00,WUHU216HW,2013-01-14 03:56:00,
2013-01-13 20:57:00,27.2,-0.3,29.57,NNW,338,1.6,1.8,30,0.00,,,0.00,WUHU216HW,2013-01-14 03:57:00,
2013-01-13 20:58:00,27.2,-0.3,29.56,NNW,338,1.8,1.8,30,0.00,,,0.00,WUHU216HW,2013-01-14 03:58:00,
2013-01-13 20:59:00,27.2,-0.3,29.56,NNW,338,1.8,1.8,30,0.00,,,0.00,WUHU216HW,2013-01-14 03:59:00,
2013-01-13 21:01:00,27.2,-0.3,29.56,NNW,338,2.0,2.0,30,0.00,,,0.00,WUHU216HW,2013-01-14 04:01:00,
2013-01-13 21:02:00,27.2,-0.3,29.56,NNW,338,1.1,2.0,30,0.00,,,0.00,WUHU216HW,2013-01-14 04:02:00,
2013-01-13 21:04:00,27.2,-0.3,29.56,NNW,338,0.9,2.0,30,0.00,,,0.00,WUHU216HW,2013-01-14 04:04:00,
2013-01-13 21:06:00,27.2,-0.3,29.56,NNW,338,1.3,2.0,30,0.00,,,0.00,WUHU216HW,2013-01-14 04:06:00,
2013-01-13 21:07:00,27.2,-0.3,29.57,NNW,338,0.4,2.0,30,0.00,,,0.00,WUHU216HW,2013-01-14 04:07:00,
2013-01-13 21:09:00,27.2,-0.3,29.56,NNW,338,1.8,2.0,30,0.00,,,0.00,WUHU216HW,2013-01-14 04:09:00,
2013-01-13 21:11:00,27.2,-0.3,29.56,NNW,338,1.8,1.8,30,0.00,,,0.00,WUHU216HW,2013-01-14 04:11:00,
2013-01-13 21:13:00,27.2,-0.3,29.56,NNW,338,1.6,1.8,30,0.00,,,0.00,WUHU216HW,2013-01-14 04:13:00,
2013-01-13 21:14:00,27.2,-0.3,29.56,NNW,338,1.3,1.8,30,0.00,,,0.00,WUHU216HW,2013-01-14 04:14:00,
2013-01-13 21:16:00,27.2,-0.3,29.56,NNW,338,2.9,2.9,30,0.00,,,0.00,WUHU216HW,2013-01-14 04:16:00,
2013-01-13 21:18:00,27.2,-0.3,29.56,NNW,338,1.1,2.9,30,0.00,,,0.00,WUHU216HW,2013-01-14 04:18:00,
2013-01-13 21:20:00,27.4,-0.1,29.56,NNW,338,1.3,2.9,30,0.00,,,0.00,WUHU216HW,2013-01-14 04:20:00,
2013-01-13 21:22:00,27.4,-0.1,29.57,NNW,338,1.1,2.9,30,0.00,,,0.00,WUHU216HW,2013-01-14 04:22:00,
2013-01-13 21:23:00,27.2,-0.3,29.57,NNW,338,2.2,2.9,30,0.00,,,0.00,WUHU216HW,2013-01-14 04:23:00,
2013-01-13 21:25:00,27.4,-0.1,29.56,North,0,2.9,2.9,30,0.00,,,0.00,WUHU216HW,2013-01-14 04:25:00,
2013-01-13 21:26:00,27.2,-0.3,29.57,North,0,1.8,2.9,30,0.00,,,0.00,WUHU216HW,2013-01-14 04:26:00,
2013-01-13 21:28:00,27.2,-0.3,29.56,NNW,338,0.2,2.9,30,0.00,,,0.00,WUHU216HW,2013-01-14 04:28:00,
2013-01-13 21:30:00,27.2,-0.3,29.57,North,0,0.9,2.9,30,0.00,,,0.00,WUHU216HW,2013-01-14 04:30:00,
2013-01-13 21:32:00,27.2,-0.3,29.57,NNW,338,2.2,2.9,30,0.00,,,0.00,WUHU216HW,2013-01-14 04:32:00,
2013-01-13 21:33:00,27.2,-0.3,29.57,NNW,338,0.7,2.9,30,0.00,,,0.00,WUHU216HW,2013-01-14 04:33:00,
2013-01-13 21:35:00,27.0,-0.3,29.57,NNW,338,1.8,2.2,30,0.00,,,0.00,WUHU216HW,2013-01-14 04:35:00,
2013-01-13 21:37:00,27.0,-0.3,29.57,NNW,338,1.8,2.2,30,0.00,,,0.00,WUHU216HW,2013-01-14 04:37:00,
2013-01-13 21:38:00,27.0,-0.3,29.57,NNW,338,1.8,2.2,30,0.00,,,0.00,WUHU216HW,2013-01-14 04:38:00,
2013-01-13 21:40:00,27.0,-0.3,29.57,North,0,0.7,2.2,30,0.00,,,0.00,WUHU216HW,2013-01-14 04:40:00,
2013-01-13 21:42:00,27.0,-0.3,29.57,NNW,338,1.6,2.2,30,0.00,,,0.00,WUHU216HW,2013-01-14 04:42:00,
2013-01-13 21:43:00,27.0,-0.3,29.57,NNW,338,0.9,2.2,30,0.00,,,0.00,WUHU216HW,2013-01-14 04:43:00,
2013-01-13 21:45:00,27.0,-0.3,29.57,NNW,338,1.8,2.0,30,0.00,,,0.00,WUHU216HW,2013-01-14 04:45:00,
2013-01-13 21:47:00,27.0,-0.3,29.57,NW,315,2.0,2.0,30,0.00,,,0.00,WUHU216HW,2013-01-14 04:47:00,
2013-01-13 21:49:00,27.0,-0.3,29.57,North,0,0.4,2.0,30,0.00,,,0.00,WUHU216HW,2013-01-14 04:49:00,
2013-01-13 21:50:00,27.0,-0.3,29.57,NNW,338,0.2,2.0,30,0.00,,,0.00,WUHU216HW,2013-01-14 04:50:00,
2013-01-13 21:51:00,27.0,-0.3,29.57,NNW,338,0.2,2.0,30,0.00,,,0.00,WUHU216HW,2013-01-14 04:51:00,
2013-01-13 21:52:00,27.0,-0.3,29.57,North,0,0.2,2.0,30,0.00,,,0.00,WUHU216HW,2013-01-14 04:52:00,
2013-01-13 21:54:00,27.0,0.3,29.57,NNW,338,0.2,2.0,31,0.00,,,0.00,WUHU216HW,2013-01-14 04:54:00,
2013-01-13 21:56:00,27.0,-0.3,29.57,NNW,338,0.4,2.0,30,0.00,,,0.00,WUHU216HW,2013-01-14 04:56:00,
2013-01-13 21:57:00,27.0,-0.3,29.57,NNW,338,2.0,2.0,30,0.00,,,0.00,WUHU216HW,2013-01-14 04:57:00,
2013-01-13 21:59:00,27.0,-0.3,29.57,NNW,338,2.9,2.9,30,0.00,,,0.00,WUHU216HW,2013-01-14 04:59:00,
2013-01-13 22:00:00,27.0,0.3,29.57,NW,315,0.2,2.9,31,0.00,,,0.00,WUHU216HW,2013-01-14 05:00:00,
2013-01-13 22:01:00,27.0,0.3,29.57,WNW,293,0.4,2.9,31,0.00,,,0.00,WUHU216HW,2013-01-14 05:01:00,
2013-01-13 22:03:00,27.0,0.3,29.57,NW,315,0.0,2.9,31,0.00,,,0.00,WUHU216HW,2013-01-14 05:03:00,
2013-01-13 22:05:00,27.0,0.3,29.57,NW,315,0.4,2.9,31,0.00,,,0.00,WUHU216HW,2013-01-14 05:05:00,
2013-01-13 22:06:00,27.0,0.3,29.57,NNW,338,0.0,2.9,31,0.00,,,0.00,WUHU216HW,2013-01-14 05:06:00,
2013-01-13 22:08:00,27.0,0.3,29.57,North,0,1.3,2.9,31,0.00,,,0.00,WUHU216HW,2013-01-14 05:08:00,
2013-01-13 22:10:00,27.0,-0.3,29.57,North,0,0.0,1.3,30,0.00,,,0.00,WUHU216HW,2013-01-14 05:10:00,
2013-01-13 22:11:00,27.0,0.3,29.57,NNW,338,1.1,1.3,31,0.00,,,0.00,WUHU216HW,2013-01-14 05:11:00,
2013-01-13 22:13:00,27.0,0.3,29.57,NNW,338,0.9,1.3,31,0.00,,,0.00,WUHU216HW,2013-01-14 05:13:00,
2013-01-13 22:15:00,27.0,0.3,29.57,North,0,2.0,2.0,31,0.00,,,0.00,WUHU216HW,2013-01-14 05:15:00,
2013-01-13 22:16:00,27.0,0.3,29.57,NNW,338,1.8,2.0,31,0.00,,,0.00,WUHU216HW,2013-01-14 05:16:00,
2013-01-13 22:18:00,27.0,0.3,29.57,NW,315,1.6,2.0,31,0.00,,,0.00,WUHU216HW,2013-01-14 05:18:00,
2013-01-13 22:20:00,27.0,0.3,29.57,NNW,338,2.0,2.0,31,0.00,,,0.00,WUHU216HW,2013-01-14 05:20:00,
2013-01-13 22:21:00,27.0,0.3,29.57,NNW,338,1.3,2.0,31,0.00,,,0.00,WUHU216HW,2013-01-14 05:21:00,
2013-01-13 22:23:00,26.8,0.1,29.57,NW,315,1.8,2.0,31,0.00,,,0.00,WUHU216HW,2013-01-14 05:23:00,
2013-01-13 22:25:00,26.8,0.1,29.57,North,0,2.0,2.0,31,0.00,,,0.00,WUHU216HW,2013-01-14 05:25:00,
2013-01-13 22:26:00,26.6,-0.1,29.57,NW,315,4.0,4.0,31,0.00,,,0.00,WUHU216HW,2013-01-14 05:26:00,
2013-01-13 22:27:00,26.6,-0.1,29.57,NW,315,4.0,4.0,31,0.00,,,0.00,WUHU216HW,2013-01-14 05:27:00,
2013-01-13 22:29:00,26.6,-0.1,29.57,NNW,338,1.6,4.0,31,0.00,,,0.00,WUHU216HW,2013-01-14 05:29:00,
2013-01-13 22:30:00,26.6,-0.1,29.57,NNW,338,0.9,4.0,31,0.00,,,0.00,WUHU216HW,2013-01-14 05:30:00,
2013-01-13 22:31:00,26.5,-0.3,29.57,NNW,338,1.1,4.0,31,0.00,,,0.00,WUHU216HW,2013-01-14 05:31:00,
2013-01-13 22:32:00,26.5,-0.3,29.57,NNW,338,1.1,4.0,31,0.00,,,0.00,WUHU216HW,2013-01-14 05:32:00,
2013-01-13 22:34:00,26.6,-0.1,29.57,NNW,338,0.4,4.0,31,0.00,,,0.00,WUHU216HW,2013-01-14 05:34:00,
2013-01-13 22:36:00,26.5,-0.3,29.57,NNW,338,0.4,4.0,31,0.00,,,0.00,WUHU216HW,2013-01-14 05:36:00,
2013-01-13 22:37:00,26.6,-0.1,29.57,North,0,3.4,3.4,31,0.00,,,0.00,WUHU216HW,2013-01-14 05:37:00,
2013-01-13 22:39:00,26.6,-0.1,29.57,NNW,338,2.2,3.4,31,0.00,,,0.00,WUHU216HW,2013-01-14 05:39:00,
2013-01-13 22:41:00,26.5,-0.3,29.57,North,0,1.8,3.4,31,0.00,,,0.00,WUHU216HW,2013-01-14 05:41:00,
2013-01-13 22:42:00,26.5,-0.3,29.57,North,0,1.3,3.4,31,0.00,,,0.00,WUHU216HW,2013-01-14 05:42:00,
2013-01-13 22:44:00,26.3,-0.3,29.57,North,0,2.5,3.8,31,0.00,,,0.00,WUHU216HW,2013-01-14 05:44:00,
2013-01-13 22:46:00,26.3,-0.3,29.57,NNW,338,2.0,3.8,31,0.00,,,0.00,WUHU216HW,2013-01-14 05:46:00,
2013-01-13 22:47:00,26.1,-0.5,29.57,NNW,338,1.3,3.8,31,0.00,,,0.00,WUHU216HW,2013-01-14 05:47:00,
2013-01-13 22:49:00,26.1,-0.5,29.57,North,0,2.5,3.8,31,0.00,,,0.00,WUHU216HW,2013-01-14 05:49:00,
2013-01-13 22:51:00,25.9,-0.6,29.57,North,0,1.1,3.8,31,0.00,,,0.00,WUHU216HW,2013-01-14 05:51:00,
2013-01-13 22:52:00,25.9,-0.1,29.57,North,0,0.9,3.4,32,0.00,,,0.00,WUHU216HW,2013-01-14 05:52:00,
2013-01-13 22:54:00,25.9,-0.1,29.57,North,0,2.2,3.4,32,0.00,,,0.00,WUHU216HW,2013-01-14 05:54:00,
2013-01-13 22:56:00,25.9,-0.1,29.57,NW,315,2.9,3.4,32,0.00,,,0.00,WUHU216HW,2013-01-14 05:56:00,
2013-01-13 22:57:00,25.7,-0.2,29.57,NNE,23,2.5,3.4,32,0.00,,,0.00,WUHU216HW,2013-01-14 05:57:00,
2013-01-13 22:59:00,25.7,-0.2,29.57,North,0,2.5,3.4,32,0.00,,,0.00,WUHU216HW,2013-01-14 05:59:00,
2013-01-13 23:01:00,25.7,-0.2,29.57,NW,315,0.2,2.9,32,0.00,,,0.00,WUHU216HW,2013-01-14 06:01:00,
2013-01-13 23:02:00,25.7,-0.2,29.57,NW,315,0.2,2.9,32,0.00,,,0.00,WUHU216HW,2013-01-14 06:02:00,
2013-01-13 23:03:00,25.6,-0.4,29.58,WNW,293,0.7,2.9,32,0.00,,,0.00,WUHU216HW,2013-01-14 06:03:00,
2013-01-13 23:04:00,25.6,-0.4,29.58,NNW,338,0.4,2.9,32,0.00,,,0.00,WUHU216HW,2013-01-14 06:04:00,
2013-01-13 23:06:00,25.6,-0.4,29.58,West,270,1.8,2.7,32,0.00,,,0.00,WUHU216HW,2013-01-14 06:06:00,
2013-01-13 23:07:00,25.6,-0.4,29.58,West,270,1.8,2.7,32,0.00,,,0.00,WUHU216HW,2013-01-14 06:07:00,
2013-01-13 23:08:00,25.6,-0.4,29.58,West,270,0.9,2.7,32,0.00,,,0.00,WUHU216HW,2013-01-14 06:08:00,
2013-01-13 23:09:00,25.6,-0.4,29.58,West,270,1.8,2.7,32,0.00,,,0.00,WUHU216HW,2013-01-14 06:09:00,
2013-01-13 23:11:00,25.6,-0.4,29.58,West,270,2.7,2.7,32,0.00,,,0.00,WUHU216HW,2013-01-14 06:11:00,
2013-01-13 23:12:00,25.6,-0.4,29.58,WNW,293,0.7,2.7,32,0.00,,,0.00,WUHU216HW,2013-01-14 06:12:00,
2013-01-13 23:13:00,25.6,-0.4,29.58,WNW,293,1.3,2.7,32,0.00,,,0.00,WUHU216HW,2013-01-14 06:13:00,
2013-01-13 23:14:00,25.6,-0.4,29.58,WNW,293,1.1,2.7,32,0.00,,,0.00,WUHU216HW,2013-01-14 06:14:00,
2013-01-13 23:16:00,25.6,-1.0,29.58,NNW,338,0.7,2.7,31,0.00,,,0.00,WUHU216HW,2013-01-14 06:16:00,
2013-01-13 23:17:00,25.6,-0.4,29.58,WNW,293,1.8,2.7,32,0.00,,,0.00,WUHU216HW,2013-01-14 06:17:00,
2013-01-13 23:18:00,25.6,-1.0,29.58,West,270,1.1,2.7,31,0.00,,,0.00,WUHU216HW,2013-01-14 06:18:00,
2013-01-13 23:19:00,25.4,-0.4,29.58,West,270,1.3,2.7,32,0.00,,,0.00,WUHU216HW,2013-01-14 06:19:00,
2013-01-13 23:21:00,25.4,-0.4,29.58,West,270,1.8,2.5,32,0.00,,,0.00,WUHU216HW,2013-01-14 06:21:00,
2013-01-13 23:22:00,25.4,-0.4,29.58,West,270,2.0,2.5,32,0.00,,,0.00,WUHU216HW,2013-01-14 06:22:00,
2013-01-13 23:23:00,25.4,-0.4,29.58,WNW,293,0.4,2.5,32,0.00,,,0.00,WUHU216HW,2013-01-14 06:23:00,
2013-01-13 23:24:00,25.4,-0.4,29.58,West,270,1.3,2.5,32,0.00,,,0.00,WUHU216HW,2013-01-14 06:24:00,
2013-01-13 23:26:00,25.4,-0.4,29.58,NNW,338,0.2,2.5,32,0.00,,,0.00,WUHU216HW,2013-01-14 06:26:00,
2013-01-13 23:27:00,25.4,-0.4,29.58,NNW,338,1.1,2.5,32,0.00,,,0.00,WUHU216HW,2013-01-14 06:27:00,
2013-01-13 23:28:00,25.4,-0.4,29.58,North,0,0.2,2.5,32,0.00,,,0.00,WUHU216HW,2013-01-14 06:28:00,
2013-01-13 23:29:00,25.4,-0.4,29.58,NNW,338,1.1,2.5,32,0.00,,,0.00,WUHU216HW,2013-01-14 06:29:00,
2013-01-13 23:32:00,25.4,-0.4,29.58,NNW,338,0.9,1.3,32,0.00,,,0.00,WUHU216HW,2013-01-14 06:32:00,
2013-01-13 23:33:00,25.4,-0.4,29.58,NNW,338,0.0,1.3,32,0.00,,,0.00,WUHU216HW,2013-01-14 06:33:00,
2013-01-13 23:35:00,25.6,-0.4,29.58,SE,135,0.2,1.1,32,0.00,,,0.00,WUHU216HW,2013-01-14 06:35:00,
2013-01-13 23:37:00,25.4,-0.4,29.58,SE,135,0.0,1.1,32,0.00,,,0.00,WUHU216HW,2013-01-14 06:37:00,
2013-01-13 23:38:00,25.4,-0.4,29.58,SE,135,0.0,1.1,32,0.00,,,0.00,WUHU216HW,2013-01-14 06:38:00,
2013-01-13 23:39:00,25.2,-0.6,29.58,SW,225,0.0,1.1,32,0.00,,,0.00,WUHU216HW,2013-01-14 06:39:00,
2013-01-13 23:40:00,25.2,-0.6,29.58,WSW,248,1.1,1.1,32,0.00,,,0.00,WUHU216HW,2013-01-14 06:40:00,
2013-01-13 23:42:00,25.0,-0.8,29.58,WSW,248,1.1,1.1,32,0.00,,,0.00,WUHU216HW,2013-01-14 06:42:00,
2013-01-13 23:43:00,25.0,-0.8,29.58,WSW,248,1.1,1.1,32,0.00,,,0.00,WUHU216HW,2013-01-14 06:43:00,
2013-01-13 23:44:00,25.0,-0.8,29.58,WSW,248,1.3,1.3,32,0.00,,,0.00,WUHU216HW,2013-01-14 06:44:00,
2013-01-13 23:45:00,24.8,-0.9,29.58,West,270,0.4,1.3,32,0.00,,,0.00,WUHU216HW,2013-01-14 06:45:00,
2013-01-13 23:47:00,24.8,-0.9,29.58,West,270,0.0,1.3,32,0.00,,,0.00,WUHU216HW,2013-01-14 06:47:00,
2013-01-13 23:48:00,24.8,-0.9,29.58,West,270,0.0,1.3,32,0.00,,,0.00,WUHU216HW,2013-01-14 06:48:00,
2013-01-13 23:49:00,24.8,-0.9,29.58,West,270,0.0,1.3,32,0.00,,,0.00,WUHU216HW,2013-01-14 06:49:00,
2013-01-13 23:50:00,24.8,-0.9,29.57,NNW,338,0.0,1.3,32,0.00,,,0.00,WUHU216HW,2013-01-14 06:50:00,
2013-01-13 23:53:00,24.8,-0.9,29.57,SSW,203,0.0,1.3,32,0.00,,,0.00,WUHU216HW,2013-01-14 06:53:00,
2013-01-13 23:54:00,24.8,-0.9,29.58,SSW,203,1.1,1.3,32,0.00,,,0.00,WUHU216HW,2013-01-14 06:54:00,
2013-01-13 23:56:00,24.8,-0.9,29.58,SSW,203,0.9,1.1,32,0.00,,,0.00,WUHU216HW,2013-01-14 06:56:00,
2013-01-13 23:58:00,24.8,-0.9,29.58,SSW,203,0.0,1.1,32,0.00,,,0.00,WUHU216HW,2013-01-14 06:58:00,
2013-01-13 23:59:00,24.8,-0.9,29.58,SSW,203,0.0,1.1,32,0.00,,,0.00,WUHU216HW,2013-01-14 06:59:00,